GEFSSE_prec_meanprecacc_138.txt.gz
Total_Precipitation_Accumulation
0.08 0.05 0.11 0.09 0.06 0.06 0.08 0.10 0.12 0.12 0.12 0.14 0.16 0.14 0.12 0.08 0.07 0.08 0.11 0.12 0.11 0.12 0.13 0.16 0.20 0.21 0.24 0.24 0.24 0.22 0.19 0.18 0.23 0.22 0.21 0.23 0.28 0.39 0.45 0.45 0.52 0.39 0.33
0.05 0.04 0.10 0.08 0.06 0.07 0.08 0.10 0.11 0.11 0.10 0.11 0.14 0.13 0.10 0.08 0.07 0.07 0.10 0.11 0.10 0.10 0.10 0.13 0.14 0.15 0.19 0.19 0.16 0.14 0.14 0.15 0.18 0.21 0.22 0.21 0.26 0.40 0.48 0.44 0.52 0.33 0.25
0.04 0.04 0.07 0.08 0.07 0.07 0.07 0.10 0.12 0.12 0.10 0.09 0.10 0.11 0.09 0.08 0.09 0.09 0.10 0.14 0.17 0.15 0.11 0.10 0.10 0.11 0.13 0.13 0.10 0.09 0.11 0.13 0.18 0.24 0.33 0.33 0.22 0.40 0.49 0.44 0.33 0.20 0.22
0.05 0.04 0.05 0.07 0.06 0.07 0.07 0.08 0.11 0.12 0.12 0.13 0.14 0.12 0.10 0.10 0.10 0.10 0.10 0.13 0.16 0.13 0.12 0.08 0.07 0.07 0.08 0.07 0.06 0.08 0.11 0.16 0.21 0.29 0.56 0.58 0.29 0.36 0.44 0.39 0.30 0.23 0.22
0.08 0.05 0.07 0.07 0.06 0.07 0.07 0.08 0.09 0.12 0.13 0.15 0.15 0.14 0.13 0.12 0.11 0.10 0.10 0.12 0.13 0.09 0.08 0.08 0.08 0.07 0.06 0.04 0.05 0.07 0.11 0.17 0.21 0.34 0.47 0.55 0.52 0.40 0.37 0.37 0.34 0.34 0.28
0.10 0.08 0.10 0.10 0.08 0.07 0.08 0.09 0.10 0.11 0.12 0.13 0.13 0.12 0.12 0.12 0.13 0.12 0.11 0.13 0.16 0.15 0.11 0.11 0.11 0.11 0.07 0.05 0.05 0.07 0.11 0.18 0.22 0.27 0.30 0.35 0.46 0.43 0.40 0.46 0.48 0.46 0.38
0.12 0.14 0.17 0.17 0.12 0.10 0.09 0.10 0.11 0.11 0.12 0.12 0.12 0.11 0.10 0.11 0.11 0.12 0.11 0.12 0.13 0.15 0.15 0.15 0.14 0.11 0.11 0.10 0.08 0.09 0.13 0.21 0.25 0.30 0.23 0.37 0.46 0.33 0.44 0.63 0.75 0.68 0.54
0.17 0.19 0.23 0.21 0.15 0.14 0.12 0.11 0.11 0.11 0.11 0.12 0.12 0.10 0.09 0.08 0.09 0.12 0.13 0.12 0.10 0.10 0.12 0.15 0.18 0.15 0.12 0.15 0.14 0.13 0.16 0.21 0.22 0.27 0.23 0.33 0.34 0.33 0.48 0.72 0.86 0.81 0.68
0.27 0.26 0.29 0.27 0.20 0.18 0.16 0.15 0.14 0.14 0.14 0.13 0.13 0.13 0.11 0.09 0.09 0.12 0.14 0.14 0.12 0.11 0.11 0.12 0.13 0.13 0.12 0.15 0.19 0.20 0.22 0.28 0.31 0.36 0.28 0.39 0.41 0.48 0.67 0.85 0.96 0.93 0.85
0.41 0.36 0.35 0.34 0.30 0.26 0.23 0.22 0.22 0.20 0.18 0.18 0.17 0.18 0.19 0.18 0.17 0.19 0.19 0.18 0.19 0.19 0.16 0.15 0.17 0.17 0.17 0.17 0.19 0.29 0.38 0.35 0.22 0.27 0.44 0.40 0.41 0.67 0.95 1.04 1.14 1.15 1.08
0.62 0.51 0.42 0.42 0.41 0.37 0.34 0.33 0.32 0.31 0.29 0.27 0.28 0.28 0.28 0.27 0.29 0.35 0.31 0.34 0.35 0.36 0.38 0.38 0.40 0.38 0.36 0.27 0.30 0.46 0.49 0.28 0.25 0.36 0.49 0.39 0.51 0.89 1.19 1.28 1.29 1.32 1.28
0.75 0.63 0.59 0.56 0.46 0.40 0.35 0.39 0.44 0.43 0.44 0.43 0.48 0.50 0.49 0.51 0.48 0.39 0.46 0.62 0.78 0.86 0.85 0.94 1.05 0.86 0.66 0.65 1.10 1.12 0.43 0.27 0.39 0.42 0.52 0.51 0.75 1.18 1.44 1.55 1.52 1.45 1.41
1.05 0.88 0.78 0.67 0.57 0.53 0.55 0.56 0.60 0.59 0.66 0.68 0.75 0.83 0.83 0.76 0.65 0.60 0.70 0.92 1.12 1.18 1.15 1.47 1.58 1.15 1.20 1.42 1.55 1.31 0.63 0.50 0.49 0.49 0.72 0.88 1.01 1.47 1.89 1.92 1.88 1.72 1.59
1.32 1.14 1.01 0.89 0.88 0.81 0.81 0.79 0.78 0.83 0.90 0.96 1.02 1.09 1.19 1.23 1.12 1.10 1.14 1.24 1.41 1.49 1.69 1.83 1.98 1.76 1.76 1.65 1.52 1.34 1.10 1.09 0.90 1.02 1.42 1.34 1.21 1.50 2.17 2.32 2.22 2.05 1.73
1.44 1.30 1.29 1.14 1.08 1.08 1.15 1.21 1.17 1.23 1.25 1.25 1.36 1.45 1.54 1.67 1.64 1.64 1.54 1.59 1.56 1.73 1.91 2.19 2.13 2.37 2.34 2.07 1.75 1.55 1.49 1.40 1.26 1.42 1.69 1.80 1.68 1.74 2.40 2.81 2.69 2.41 2.05
1.46 1.38 1.39 1.36 1.42 1.50 1.52 1.55 1.65 1.70 1.69 1.67 1.69 1.73 1.81 1.98 2.16 2.10 1.91 1.87 1.77 1.84 2.10 2.36 2.39 2.74 2.59 2.44 1.98 1.83 1.66 1.50 1.44 1.57 1.72 1.95 1.94 1.95 2.25 2.69 2.92 2.84 2.50
1.31 1.39 1.62 1.80 1.91 2.02 2.10 2.15 2.12 2.16 2.06 2.04 2.20 2.29 2.34 2.33 2.35 2.23 2.08 2.00 2.11 2.26 2.40 2.43 2.52 2.80 2.55 2.42 2.18 2.02 1.83 1.62 1.50 1.65 1.81 2.02 1.89 1.89 2.16 2.49 2.84 2.82 2.64
1.30 1.44 1.70 1.96 2.25 2.43 2.48 2.57 2.56 2.50 2.39 2.46 2.50 2.54 2.56 2.48 2.40 2.43 2.19 2.03 2.30 2.45 2.59 2.68 2.65 2.69 2.65 2.57 2.39 2.06 1.86 1.75 1.54 1.60 1.66 1.76 1.83 1.53 1.83 2.35 2.52 2.42 2.45
1.60 1.88 2.20 2.30 2.35 2.45 2.65 2.76 2.60 2.51 2.39 2.35 2.33 2.34 2.32 2.31 2.34 2.59 2.36 2.33 2.50 2.69 2.60 2.43 2.71 2.81 2.68 2.63 2.36 2.16 1.78 1.62 1.55 1.48 1.49 1.52 1.65 1.61 1.56 1.75 2.18 2.12 2.32
2.01 2.32 2.40 2.46 2.69 3.01 3.26 3.15 2.87 2.52 2.31 2.20 2.11 2.05 2.09 2.24 2.32 2.57 2.35 2.40 2.61 2.74 2.76 2.75 2.80 2.79 2.64 2.67 2.39 2.11 1.77 1.44 1.40 1.34 1.25 1.33 1.37 1.24 1.26 1.37 1.66 1.53 1.72
2.14 2.31 2.47 2.79 3.16 3.28 3.24 3.21 3.13 2.80 2.51 2.17 1.95 1.95 2.03 2.06 2.23 2.50 2.23 2.52 2.67 2.65 2.74 2.77 2.90 2.77 2.60 2.77 2.62 2.11 1.63 1.34 1.17 1.05 1.07 1.13 1.08 1.15 1.32 1.53 1.72 1.72 1.56
2.13 2.37 2.65 2.95 3.27 3.17 3.31 3.50 3.40 3.13 2.55 2.18 1.98 1.95 2.00 2.05 2.13 2.30 2.56 2.60 2.67 2.68 2.70 2.68 2.70 2.50 2.32 2.66 2.65 2.40 1.80 1.41 1.09 0.92 1.05 1.01 1.05 1.25 1.27 1.32 1.56 1.79 1.68
2.28 2.64 2.88 3.06 3.13 3.11 3.24 3.33 3.05 2.81 2.37 2.23 2.22 2.11 2.06 2.18 2.23 2.36 2.53 2.62 2.54 2.45 2.48 2.59 2.50 2.35 2.17 2.31 2.58 2.57 2.05 1.54 1.18 0.97 1.00 1.03 1.27 1.38 1.24 1.20 1.18 1.24 1.32
2.33 2.69 3.01 3.00 2.97 2.92 3.02 3.09 2.93 2.65 2.37 2.26 2.28 2.08 1.93 1.92 1.98 2.09 2.17 2.33 2.39 2.38 2.34 2.31 2.29 2.30 2.20 2.07 2.32 2.40 2.24 1.96 1.66 1.18 0.95 0.99 1.22 1.30 1.22 1.10 1.10 1.18 1.26
2.05 2.34 2.61 2.80 2.84 2.77 2.73 2.70 2.66 2.47 2.22 2.08 2.02 1.90 1.85 1.88 1.81 1.81 1.92 2.11 2.16 2.09 2.07 2.22 2.38 2.35 2.18 2.02 2.11 2.21 2.35 2.28 1.98 1.60 1.15 1.07 1.08 1.02 1.12 1.12 1.11 1.16 1.30
1.85 2.10 2.27 2.40 2.45 2.41 2.32 2.29 2.31 2.24 2.18 2.03 1.88 1.89 1.92 1.86 1.74 1.68 1.71 1.83 1.90 1.89 1.86 1.90 2.01 2.04 2.01 2.08 2.11 2.12 2.22 2.20 2.09 1.97 1.54 1.30 1.16 0.89 0.95 1.01 1.08 1.11 1.20

GEFSSE_prec_meanprecacc_144.txt.gz
Total_Precipitation_Accumulation
0.08 0.05 0.11 0.09 0.07 0.08 0.09 0.11 0.14 0.14 0.14 0.15 0.17 0.16 0.13 0.10 0.08 0.09 0.12 0.14 0.13 0.14 0.16 0.19 0.23 0.24 0.27 0.27 0.26 0.24 0.21 0.20 0.26 0.26 0.25 0.27 0.32 0.46 0.55 0.56 0.63 0.46 0.36
0.06 0.04 0.10 0.09 0.07 0.08 0.10 0.12 0.13 0.13 0.12 0.14 0.16 0.16 0.12 0.10 0.09 0.08 0.11 0.13 0.12 0.11 0.11 0.15 0.16 0.17 0.21 0.22 0.17 0.16 0.16 0.17 0.21 0.25 0.25 0.24 0.30 0.46 0.58 0.56 0.69 0.40 0.31
0.05 0.04 0.08 0.09 0.08 0.08 0.09 0.12 0.15 0.15 0.12 0.12 0.13 0.13 0.11 0.11 0.11 0.10 0.11 0.16 0.18 0.16 0.13 0.12 0.12 0.12 0.14 0.14 0.11 0.10 0.13 0.16 0.22 0.31 0.43 0.40 0.24 0.44 0.59 0.58 0.45 0.26 0.26
0.05 0.06 0.06 0.07 0.07 0.08 0.09 0.10 0.13 0.15 0.16 0.16 0.17 0.14 0.13 0.13 0.13 0.12 0.12 0.14 0.17 0.15 0.13 0.09 0.09 0.09 0.09 0.07 0.07 0.09 0.14 0.20 0.26 0.47 0.77 0.68 0.33 0.40 0.51 0.48 0.37 0.27 0.26
0.09 0.07 0.09 0.08 0.07 0.08 0.09 0.10 0.12 0.15 0.17 0.19 0.18 0.16 0.16 0.14 0.14 0.13 0.12 0.14 0.14 0.11 0.10 0.09 0.10 0.09 0.07 0.05 0.06 0.09 0.13 0.20 0.28 0.54 0.68 0.67 0.59 0.44 0.41 0.42 0.39 0.39 0.33
0.11 0.09 0.12 0.13 0.11 0.10 0.10 0.12 0.14 0.15 0.16 0.17 0.15 0.14 0.14 0.14 0.15 0.14 0.13 0.15 0.17 0.17 0.13 0.13 0.13 0.12 0.09 0.06 0.06 0.09 0.13 0.21 0.32 0.40 0.41 0.46 0.50 0.46 0.45 0.51 0.52 0.50 0.43
0.16 0.16 0.20 0.21 0.18 0.14 0.12 0.13 0.14 0.14 0.16 0.16 0.14 0.13 0.13 0.14 0.15 0.15 0.14 0.14 0.14 0.17 0.17 0.17 0.16 0.12 0.12 0.11 0.09 0.10 0.15 0.26 0.36 0.37 0.31 0.52 0.53 0.35 0.49 0.67 0.79 0.72 0.58
0.23 0.23 0.25 0.24 0.21 0.19 0.16 0.15 0.15 0.14 0.14 0.15 0.15 0.13 0.12 0.12 0.13 0.15 0.16 0.14 0.12 0.12 0.14 0.16 0.19 0.15 0.12 0.16 0.15 0.13 0.17 0.23 0.27 0.30 0.28 0.41 0.38 0.34 0.51 0.75 0.89 0.86 0.73
0.39 0.31 0.32 0.29 0.23 0.20 0.19 0.18 0.17 0.17 0.16 0.15 0.15 0.16 0.14 0.12 0.12 0.14 0.16 0.16 0.14 0.12 0.12 0.14 0.14 0.14 0.12 0.16 0.20 0.21 0.22 0.30 0.36 0.39 0.33 0.47 0.42 0.49 0.69 0.87 0.99 0.96 0.89
0.57 0.44 0.41 0.39 0.34 0.28 0.26 0.25 0.25 0.22 0.20 0.19 0.18 0.20 0.22 0.21 0.19 0.22 0.21 0.20 0.21 0.21 0.18 0.16 0.18 0.17 0.18 0.17 0.19 0.29 0.38 0.36 0.24 0.31 0.50 0.45 0.42 0.68 0.96 1.06 1.16 1.17 1.11
0.76 0.64 0.54 0.52 0.48 0.42 0.39 0.36 0.35 0.34 0.31 0.29 0.30 0.30 0.31 0.33 0.38 0.42 0.36 0.37 0.37 0.38 0.40 0.40 0.41 0.40 0.37 0.28 0.30 0.47 0.50 0.29 0.33 0.48 0.60 0.45 0.53 0.90 1.20 1.28 1.30 1.33 1.30
0.88 0.77 0.75 0.72 0.61 0.51 0.43 0.48 0.54 0.51 0.51 0.49 0.58 0.56 0.57 0.64 0.60 0.48 0.54 0.66 0.81 0.88 0.88 0.96 1.07 0.87 0.68 0.68 1.13 1.13 0.45 0.31 0.47 0.58 0.68 0.58 0.78 1.20 1.46 1.56 1.53 1.46 1.42
1.16 0.98 0.93 0.86 0.74 0.66 0.70 0.69 0.72 0.72 0.78 0.78 0.86 0.92 0.94 0.85 0.72 0.68 0.80 1.00 1.19 1.24 1.23 1.55 1.61 1.18 1.25 1.48 1.60 1.33 0.66 0.56 0.59 0.66 0.92 0.98 1.05 1.51 1.94 1.96 1.90 1.74 1.60
1.48 1.27 1.13 1.05 1.01 0.97 0.95 0.93 0.89 0.93 1.00 1.06 1.17 1.21 1.32 1.35 1.23 1.20 1.27 1.36 1.53 1.62 1.84 1.97 2.09 1.83 1.82 1.71 1.56 1.37 1.15 1.13 1.01 1.23 1.62 1.47 1.27 1.55 2.24 2.40 2.28 2.08 1.75
1.59 1.40 1.39 1.24 1.18 1.20 1.27 1.34 1.28 1.34 1.36 1.37 1.49 1.57 1.65 1.80 1.77 1.76 1.67 1.70 1.67 1.85 2.03 2.30 2.23 2.47 2.42 2.15 1.79 1.59 1.57 1.47 1.36 1.54 1.82 1.91 1.75 1.79 2.46 2.88 2.76 2.47 2.09
1.61 1.50 1.49 1.44 1.49 1.61 1.62 1.65 1.76 1.81 1.79 1.78 1.79 1.84 1.90 2.08 2.27 2.21 2.00 1.98 1.88 1.95 2.22 2.47 2.49 2.87 2.71 2.56 2.05 1.88 1.71 1.56 1.50 1.66 1.85 2.09 2.02 1.99 2.31 2.74 2.97 2.90 2.56
1.44 1.51 1.71 1.87 1.97 2.10 2.19 2.24 2.22 2.25 2.14 2.12 2.28 2.37 2.40 2.39 2.42 2.30 2.15 2.07 2.19 2.32 2.49 2.53 2.62 2.93 2.65 2.54 2.30 2.12 1.90 1.69 1.56 1.73 1.94 2.24 2.05 1.97 2.22 2.56 2.91 2.88 2.71
1.40 1.53 1.78 2.03 2.30 2.49 2.56 2.68 2.68 2.58 2.45 2.52 2.56 2.60 2.61 2.52 2.43 2.49 2.25 2.08 2.35 2.50 2.66 2.80 2.77 2.82 2.80 2.73 2.55 2.19 1.98 1.84 1.63 1.69 1.77 1.93 2.04 1.68 1.98 2.45 2.62 2.53 2.54
1.69 1.96 2.27 2.39 2.41 2.50 2.70 2.84 2.69 2.59 2.45 2.42 2.39 2.40 2.37 2.35 2.37 2.62 2.41 2.39 2.57 2.76 2.67 2.50 2.82 2.93 2.84 2.80 2.51 2.30 1.90 1.73 1.65 1.57 1.61 1.69 1.85 1.80 1.73 1.90 2.30 2.24 2.43
2.09 2.39 2.47 2.54 2.77 3.08 3.33 3.23 2.95 2.59 2.37 2.26 2.16 2.10 2.13 2.26 2.34 2.59 2.38 2.44 2.66 2.81 2.84 2.84 2.89 2.87 2.74 2.79 2.48 2.22 1.87 1.53 1.46 1.42 1.35 1.46 1.50 1.34 1.38 1.51 1.82 1.63 1.82
2.19 2.36 2.54 2.87 3.23 3.35 3.32 3.29 3.20 2.86 2.55 2.21 1.98 1.97 2.05 2.08 2.24 2.52 2.25 2.55 2.70 2.70 2.80 2.84 2.99 2.85 2.70 2.87 2.72 2.20 1.71 1.40 1.23 1.11 1.15 1.23 1.19 1.25 1.43 1.67 1.90 1.89 1.69
2.17 2.41 2.70 2.99 3.31 3.22 3.36 3.56 3.45 3.17 2.58 2.22 2.02 1.98 2.03 2.08 2.15 2.31 2.57 2.63 2.70 2.72 2.74 2.72 2.76 2.57 2.38 2.72 2.71 2.48 1.88 1.50 1.18 1.01 1.14 1.10 1.17 1.41 1.42 1.46 1.71 1.97 1.84
2.31 2.68 2.92 3.09 3.16 3.14 3.26 3.36 3.07 2.83 2.40 2.27 2.26 2.15 2.08 2.20 2.25 2.39 2.55 2.64 2.57 2.48 2.51 2.61 2.53 2.39 2.22 2.35 2.61 2.62 2.11 1.62 1.29 1.06 1.06 1.10 1.36 1.49 1.37 1.35 1.34 1.41 1.50
2.35 2.71 3.04 3.02 3.00 2.95 3.05 3.12 2.96 2.69 2.41 2.31 2.32 2.11 1.96 1.93 1.99 2.11 2.19 2.34 2.41 2.40 2.36 2.33 2.31 2.32 2.23 2.11 2.35 2.43 2.27 2.00 1.72 1.25 1.01 1.05 1.27 1.36 1.29 1.18 1.21 1.32 1.42
2.05 2.35 2.63 2.82 2.86 2.79 2.75 2.72 2.69 2.50 2.25 2.10 2.04 1.92 1.87 1.90 1.81 1.82 1.93 2.11 2.17 2.10 2.08 2.23 2.39 2.36 2.20 2.05 2.14 2.25 2.39 2.32 2.00 1.64 1.21 1.11 1.12 1.06 1.16 1.17 1.17 1.23 1.40
1.86 2.11 2.29 2.42 2.47 2.42 2.34 2.30 2.33 2.26 2.20 2.05 1.90 1.91 1.94 1.87 1.75 1.69 1.72 1.83 1.91 1.90 1.87 1.91 2.02 2.05 2.03 2.11 2.13 2.14 2.24 2.23 2.12 2.00 1.59 1.35 1.20 0.93 0.98 1.05 1.12 1.16 1.26

GEFSSE_prec_meanprecacc_150.txt.gz
Total_Precipitation_Accumulation
0.11 0.06 0.12 0.10 0.07 0.08 0.10 0.12 0.15 0.15 0.16 0.17 0.19 0.18 0.15 0.11 0.09 0.10 0.14 0.15 0.15 0.16 0.17 0.20 0.26 0.29 0.32 0.34 0.33 0.30 0.27 0.25 0.30 0.30 0.29 0.33 0.39 0.54 0.66 0.67 0.70 0.49 0.40
0.08 0.05 0.11 0.10 0.08 0.08 0.10 0.14 0.14 0.13 0.13 0.15 0.18 0.17 0.14 0.11 0.10 0.09 0.12 0.14 0.13 0.12 0.13 0.17 0.18 0.20 0.24 0.25 0.21 0.19 0.20 0.20 0.26 0.29 0.29 0.28 0.35 0.54 0.67 0.65 0.74 0.44 0.34
0.06 0.05 0.09 0.11 0.09 0.08 0.10 0.13 0.16 0.16 0.13 0.13 0.14 0.15 0.13 0.12 0.12 0.12 0.12 0.17 0.19 0.17 0.14 0.13 0.14 0.14 0.17 0.17 0.14 0.13 0.16 0.20 0.28 0.37 0.48 0.42 0.28 0.56 0.70 0.65 0.49 0.30 0.30
0.07 0.07 0.07 0.09 0.09 0.09 0.09 0.11 0.15 0.16 0.16 0.17 0.18 0.15 0.14 0.14 0.14 0.13 0.13 0.15 0.18 0.15 0.14 0.10 0.10 0.10 0.10 0.08 0.09 0.12 0.17 0.25 0.34 0.54 0.82 0.70 0.36 0.49 0.61 0.54 0.41 0.30 0.30
0.10 0.07 0.10 0.10 0.09 0.11 0.10 0.11 0.14 0.16 0.18 0.20 0.19 0.18 0.17 0.15 0.15 0.14 0.13 0.14 0.15 0.12 0.11 0.10 0.10 0.09 0.07 0.06 0.07 0.12 0.18 0.26 0.37 0.62 0.73 0.70 0.61 0.51 0.47 0.45 0.42 0.42 0.37
0.14 0.10 0.13 0.15 0.12 0.13 0.12 0.14 0.16 0.17 0.18 0.18 0.17 0.15 0.15 0.16 0.17 0.16 0.14 0.16 0.18 0.17 0.14 0.14 0.13 0.12 0.09 0.06 0.07 0.11 0.16 0.28 0.39 0.45 0.46 0.48 0.52 0.50 0.49 0.53 0.54 0.52 0.46
0.27 0.19 0.21 0.23 0.19 0.16 0.14 0.15 0.17 0.17 0.19 0.18 0.16 0.15 0.14 0.16 0.16 0.16 0.15 0.14 0.15 0.18 0.18 0.18 0.17 0.12 0.13 0.12 0.11 0.12 0.19 0.33 0.42 0.43 0.35 0.55 0.55 0.38 0.51 0.68 0.80 0.73 0.60
0.41 0.36 0.27 0.26 0.22 0.20 0.18 0.17 0.18 0.17 0.17 0.19 0.19 0.16 0.15 0.14 0.15 0.16 0.17 0.15 0.12 0.12 0.14 0.17 0.20 0.16 0.13 0.17 0.16 0.15 0.21 0.29 0.34 0.38 0.33 0.45 0.41 0.36 0.53 0.76 0.90 0.87 0.75
0.51 0.46 0.37 0.31 0.26 0.23 0.21 0.20 0.20 0.20 0.20 0.19 0.18 0.18 0.17 0.15 0.15 0.16 0.17 0.17 0.15 0.13 0.12 0.14 0.15 0.14 0.13 0.16 0.21 0.23 0.26 0.36 0.43 0.47 0.43 0.55 0.47 0.52 0.71 0.88 1.01 0.99 0.92
0.72 0.54 0.47 0.45 0.39 0.32 0.28 0.27 0.27 0.24 0.24 0.23 0.21 0.22 0.24 0.25 0.22 0.24 0.22 0.21 0.22 0.21 0.18 0.17 0.18 0.18 0.18 0.18 0.20 0.31 0.42 0.41 0.32 0.42 0.59 0.54 0.51 0.72 0.98 1.08 1.18 1.19 1.13
0.96 0.77 0.63 0.58 0.55 0.49 0.44 0.40 0.38 0.37 0.35 0.33 0.34 0.33 0.34 0.36 0.40 0.44 0.39 0.41 0.39 0.39 0.41 0.41 0.42 0.40 0.37 0.28 0.32 0.50 0.54 0.35 0.44 0.63 0.69 0.54 0.66 0.96 1.23 1.30 1.32 1.34 1.31
1.12 0.92 0.85 0.79 0.70 0.62 0.52 0.55 0.61 0.56 0.54 0.53 0.61 0.59 0.59 0.67 0.64 0.52 0.58 0.71 0.86 0.92 0.90 0.98 1.08 0.88 0.69 0.70 1.15 1.16 0.49 0.40 0.64 0.76 0.81 0.70 0.90 1.28 1.49 1.58 1.55 1.47 1.43
1.45 1.20 1.08 0.97 0.87 0.86 0.85 0.77 0.80 0.77 0.82 0.82 0.89 0.96 0.97 0.89 0.76 0.71 0.84 1.04 1.22 1.28 1.26 1.57 1.63 1.20 1.27 1.55 1.66 1.39 0.75 0.69 0.88 0.91 1.11 1.12 1.16 1.59 1.98 1.98 1.92 1.75 1.61
1.74 1.49 1.32 1.20 1.15 1.12 1.05 1.01 0.97 0.98 1.04 1.10 1.21 1.24 1.35 1.38 1.26 1.24 1.33 1.41 1.57 1.66 1.86 2.00 2.12 1.85 1.86 1.77 1.63 1.46 1.26 1.29 1.21 1.42 1.79 1.64 1.39 1.63 2.30 2.44 2.31 2.10 1.76
1.84 1.63 1.61 1.39 1.29 1.29 1.34 1.40 1.35 1.41 1.41 1.42 1.53 1.61 1.69 1.86 1.83 1.79 1.70 1.73 1.69 1.87 2.06 2.33 2.27 2.51 2.47 2.20 1.86 1.66 1.65 1.61 1.51 1.70 1.96 2.02 1.86 1.89 2.54 2.94 2.80 2.51 2.12
1.83 1.73 1.69 1.58 1.60 1.69 1.69 1.70 1.81 1.87 1.85 1.84 1.83 1.88 1.93 2.11 2.31 2.23 2.03 2.00 1.89 1.96 2.24 2.49 2.51 2.89 2.74 2.59 2.11 1.95 1.79 1.67 1.62 1.77 1.96 2.19 2.14 2.11 2.40 2.82 3.03 2.95 2.61
1.60 1.70 1.87 2.01 2.11 2.22 2.28 2.31 2.29 2.33 2.22 2.19 2.32 2.40 2.42 2.41 2.45 2.32 2.17 2.08 2.20 2.34 2.51 2.55 2.65 2.95 2.68 2.56 2.34 2.17 1.95 1.74 1.65 1.83 2.05 2.34 2.16 2.08 2.34 2.66 2.99 2.94 2.77
1.51 1.66 1.93 2.13 2.41 2.58 2.64 2.76 2.76 2.69 2.55 2.60 2.60 2.64 2.64 2.54 2.45 2.51 2.27 2.09 2.36 2.51 2.68 2.81 2.78 2.84 2.82 2.75 2.57 2.23 2.04 1.89 1.70 1.77 1.87 2.01 2.13 1.78 2.10 2.58 2.73 2.61 2.62
1.80 2.07 2.40 2.50 2.49 2.57 2.77 2.92 2.77 2.67 2.52 2.49 2.45 2.44 2.40 2.37 2.39 2.64 2.43 2.40 2.58 2.78 2.68 2.51 2.83 2.94 2.85 2.82 2.53 2.33 1.95 1.77 1.70 1.63 1.72 1.80 1.96 1.89 1.83 1.99 2.39 2.33 2.52
2.19 2.49 2.58 2.63 2.83 3.14 3.38 3.29 3.01 2.67 2.43 2.31 2.22 2.15 2.16 2.28 2.35 2.61 2.40 2.45 2.67 2.83 2.87 2.86 2.91 2.89 2.75 2.81 2.50 2.25 1.92 1.58 1.50 1.45 1.40 1.54 1.60 1.44 1.48 1.61 1.90 1.70 1.89
2.26 2.43 2.61 2.92 3.28 3.41 3.37 3.34 3.26 2.92 2.60 2.24 2.01 2.01 2.08 2.10 2.26 2.53 2.27 2.56 2.71 2.71 2.82 2.87 3.00 2.87 2.71 2.89 2.74 2.24 1.76 1.45 1.27 1.16 1.18 1.28 1.25 1.32 1.54 1.79 1.99 1.97 1.75
2.22 2.45 2.74 3.03 3.34 3.27 3.41 3.59 3.48 3.20 2.62 2.24 2.05 2.01 2.05 2.10 2.17 2.33 2.59 2.64 2.71 2.73 2.75 2.73 2.76 2.57 2.39 2.73 2.73 2.51 1.92 1.54 1.23 1.05 1.20 1.17 1.25 1.50 1.52 1.56 1.82 2.07 1.94
2.35 2.71 2.94 3.11 3.18 3.17 3.30 3.38 3.09 2.85 2.43 2.30 2.28 2.17 2.11 2.22 2.27 2.40 2.57 2.65 2.58 2.49 2.52 2.62 2.53 2.39 2.22 2.36 2.62 2.63 2.12 1.64 1.31 1.08 1.11 1.17 1.46 1.60 1.49 1.46 1.47 1.54 1.61
2.38 2.75 3.08 3.06 3.03 2.96 3.06 3.13 2.97 2.70 2.42 2.32 2.33 2.12 1.98 1.95 2.01 2.13 2.20 2.36 2.42 2.41 2.37 2.33 2.31 2.32 2.23 2.11 2.35 2.43 2.28 2.01 1.73 1.26 1.03 1.09 1.33 1.42 1.36 1.25 1.29 1.42 1.52
2.08 2.38 2.66 2.85 2.89 2.80 2.76 2.72 2.70 2.51 2.26 2.12 2.06 1.94 1.88 1.91 1.83 1.83 1.93 2.12 2.18 2.10 2.09 2.23 2.39 2.36 2.20 2.05 2.14 2.25 2.39 2.32 2.01 1.64 1.22 1.13 1.14 1.08 1.19 1.21 1.21 1.27 1.46
1.87 2.13 2.31 2.44 2.49 2.44 2.35 2.31 2.34 2.27 2.22 2.07 1.92 1.92 1.95 1.88 1.75 1.69 1.72 1.83 1.91 1.90 1.87 1.91 2.02 2.05 2.03 2.11 2.13 2.14 2.25 2.24 2.12 2.00 1.59 1.36 1.21 0.95 1.00 1.07 1.14 1.19 1.29

GEFSSE_prec_meanprecacc_156.txt.gz
Total_Precipitation_Accumulation
0.13 0.08 0.16 0.13 0.09 0.09 0.11 0.14 0.16 0.18 0.20 0.20 0.20 0.20 0.16 0.12 0.10 0.11 0.17 0.18 0.18 0.20 0.22 0.26 0.33 0.35 0.36 0.37 0.39 0.36 0.34 0.31 0.34 0.34 0.34 0.38 0.45 0.62 0.75 0.75 0.74 0.52 0.44
0.08 0.06 0.15 0.14 0.09 0.09 0.12 0.15 0.15 0.16 0.16 0.17 0.19 0.18 0.15 0.12 0.10 0.10 0.14 0.16 0.17 0.16 0.17 0.21 0.23 0.26 0.29 0.29 0.26 0.25 0.24 0.24 0.29 0.34 0.35 0.34 0.42 0.63 0.76 0.73 0.78 0.47 0.39
0.07 0.06 0.12 0.15 0.12 0.09 0.11 0.14 0.17 0.18 0.15 0.14 0.16 0.16 0.14 0.13 0.13 0.13 0.14 0.19 0.22 0.21 0.17 0.17 0.18 0.19 0.20 0.20 0.17 0.17 0.19 0.24 0.32 0.42 0.52 0.46 0.35 0.66 0.78 0.72 0.53 0.34 0.37
0.08 0.07 0.08 0.13 0.13 0.11 0.10 0.12 0.16 0.18 0.18 0.19 0.20 0.17 0.15 0.15 0.15 0.14 0.14 0.16 0.19 0.17 0.16 0.12 0.13 0.13 0.13 0.10 0.10 0.15 0.21 0.29 0.39 0.57 0.83 0.71 0.38 0.57 0.70 0.59 0.45 0.35 0.35
0.11 0.08 0.11 0.13 0.13 0.14 0.11 0.13 0.16 0.18 0.20 0.21 0.20 0.18 0.18 0.17 0.16 0.15 0.14 0.15 0.16 0.13 0.12 0.11 0.12 0.11 0.08 0.07 0.08 0.14 0.21 0.29 0.39 0.63 0.73 0.71 0.63 0.58 0.56 0.51 0.47 0.47 0.41
0.16 0.13 0.16 0.18 0.16 0.19 0.15 0.16 0.18 0.18 0.19 0.19 0.17 0.16 0.17 0.18 0.19 0.17 0.15 0.17 0.19 0.18 0.15 0.15 0.15 0.13 0.10 0.07 0.09 0.14 0.20 0.31 0.40 0.46 0.47 0.51 0.54 0.55 0.54 0.57 0.59 0.56 0.49
0.31 0.24 0.24 0.26 0.23 0.20 0.17 0.17 0.18 0.18 0.20 0.20 0.18 0.17 0.17 0.19 0.19 0.18 0.16 0.15 0.15 0.18 0.18 0.18 0.18 0.14 0.14 0.14 0.13 0.15 0.23 0.37 0.43 0.43 0.36 0.56 0.57 0.41 0.55 0.72 0.84 0.77 0.62
0.45 0.40 0.31 0.30 0.26 0.23 0.21 0.21 0.21 0.19 0.19 0.21 0.22 0.19 0.18 0.16 0.17 0.17 0.18 0.15 0.13 0.13 0.15 0.18 0.21 0.17 0.15 0.19 0.18 0.18 0.25 0.33 0.35 0.38 0.34 0.46 0.43 0.39 0.56 0.79 0.93 0.90 0.77
0.56 0.50 0.40 0.34 0.29 0.27 0.25 0.25 0.24 0.23 0.23 0.22 0.21 0.20 0.18 0.17 0.16 0.17 0.18 0.17 0.15 0.13 0.13 0.15 0.16 0.16 0.14 0.18 0.23 0.26 0.31 0.42 0.45 0.48 0.44 0.56 0.49 0.54 0.72 0.90 1.03 1.01 0.94
0.80 0.60 0.50 0.48 0.43 0.37 0.33 0.32 0.31 0.28 0.26 0.26 0.24 0.25 0.26 0.26 0.24 0.26 0.24 0.23 0.23 0.22 0.19 0.17 0.19 0.19 0.19 0.18 0.22 0.34 0.47 0.46 0.35 0.44 0.60 0.55 0.53 0.74 1.00 1.10 1.20 1.22 1.16
1.06 0.85 0.69 0.63 0.59 0.53 0.49 0.46 0.46 0.44 0.40 0.37 0.37 0.37 0.36 0.37 0.41 0.45 0.41 0.44 0.41 0.40 0.42 0.41 0.42 0.41 0.38 0.29 0.34 0.52 0.57 0.39 0.47 0.66 0.71 0.57 0.69 0.99 1.25 1.32 1.34 1.37 1.34
1.25 1.00 0.92 0.85 0.75 0.67 0.57 0.62 0.71 0.66 0.62 0.58 0.65 0.63 0.61 0.68 0.65 0.53 0.59 0.75 0.90 0.94 0.92 0.99 1.10 0.90 0.70 0.70 1.16 1.17 0.50 0.41 0.66 0.79 0.84 0.74 0.95 1.31 1.51 1.59 1.56 1.49 1.45
1.54 1.26 1.14 1.05 0.94 0.92 0.91 0.84 0.84 0.82 0.87 0.85 0.92 0.98 0.99 0.90 0.77 0.73 0.86 1.07 1.25 1.32 1.28 1.60 1.67 1.21 1.28 1.56 1.66 1.39 0.76 0.71 0.90 0.93 1.14 1.19 1.23 1.64 2.03 2.02 1.95 1.78 1.64
1.83 1.56 1.37 1.27 1.23 1.19 1.11 1.06 1.01 1.03 1.09 1.13 1.23 1.26 1.37 1.40 1.29 1.26 1.35 1.42 1.58 1.67 1.88 2.01 2.14 1.87 1.87 1.78 1.64 1.47 1.28 1.31 1.23 1.45 1.82 1.70 1.45 1.70 2.35 2.49 2.36 2.15 1.79
1.95 1.71 1.67 1.46 1.36 1.37 1.42 1.47 1.39 1.45 1.45 1.45 1.57 1.64 1.72 1.90 1.87 1.83 1.73 1.74 1.70 1.88 2.07 2.35 2.28 2.53 2.49 2.22 1.88 1.68 1.67 1.63 1.53 1.73 1.99 2.08 1.93 1.95 2.59 2.99 2.85 2.56 2.17
1.91 1.79 1.75 1.65 1.68 1.77 1.78 1.79 1.88 1.93 1.90 1.88 1.87 1.91 1.96 2.14 2.34 2.26 2.05 2.02 1.91 1.98 2.28 2.54 2.55 2.92 2.76 2.61 2.15 1.98 1.82 1.71 1.65 1.82 2.02 2.24 2.23 2.19 2.47 2.89 3.12 3.03 2.67
1.68 1.78 1.94 2.08 2.20 2.35 2.40 2.40 2.35 2.39 2.29 2.25 2.38 2.44 2.46 2.44 2.48 2.35 2.19 2.11 2.21 2.35 2.53 2.59 2.69 2.98 2.71 2.58 2.37 2.21 2.01 1.80 1.70 1.88 2.10 2.39 2.23 2.17 2.44 2.78 3.12 3.06 2.87
1.60 1.75 2.01 2.19 2.48 2.68 2.76 2.87 2.86 2.78 2.64 2.68 2.67 2.69 2.68 2.59 2.50 2.54 2.30 2.12 2.37 2.52 2.70 2.84 2.81 2.86 2.84 2.77 2.60 2.27 2.11 1.98 1.77 1.83 1.92 2.06 2.19 1.84 2.19 2.72 2.88 2.76 2.74
1.89 2.15 2.49 2.59 2.59 2.68 2.88 3.03 2.88 2.79 2.64 2.59 2.53 2.51 2.45 2.41 2.42 2.67 2.45 2.42 2.59 2.79 2.70 2.53 2.86 2.97 2.87 2.83 2.55 2.36 2.00 1.84 1.78 1.72 1.78 1.86 2.02 1.95 1.92 2.12 2.56 2.50 2.68
2.28 2.58 2.69 2.76 2.97 3.27 3.50 3.42 3.13 2.78 2.53 2.40 2.32 2.22 2.21 2.32 2.38 2.63 2.41 2.47 2.69 2.85 2.89 2.87 2.94 2.92 2.78 2.83 2.52 2.28 1.96 1.64 1.56 1.51 1.45 1.59 1.66 1.51 1.57 1.71 2.01 1.84 2.07
2.33 2.52 2.73 3.04 3.41 3.53 3.46 3.43 3.34 2.99 2.67 2.32 2.11 2.09 2.16 2.15 2.30 2.57 2.30 2.60 2.74 2.74 2.85 2.90 3.03 2.90 2.75 2.92 2.77 2.26 1.79 1.50 1.33 1.21 1.23 1.33 1.31 1.39 1.61 1.87 2.09 2.08 1.88
2.29 2.53 2.84 3.12 3.45 3.40 3.51 3.67 3.55 3.28 2.69 2.32 2.13 2.09 2.12 2.15 2.21 2.37 2.63 2.67 2.74 2.76 2.78 2.75 2.77 2.59 2.41 2.76 2.76 2.52 1.93 1.57 1.25 1.07 1.24 1.22 1.31 1.55 1.58 1.64 1.90 2.17 2.07
2.40 2.76 3.01 3.19 3.27 3.27 3.41 3.46 3.14 2.90 2.48 2.36 2.34 2.24 2.17 2.26 2.31 2.43 2.59 2.68 2.60 2.51 2.54 2.63 2.54 2.39 2.22 2.37 2.63 2.63 2.13 1.65 1.32 1.09 1.13 1.21 1.50 1.66 1.57 1.54 1.55 1.63 1.70
2.41 2.78 3.13 3.12 3.08 3.03 3.15 3.21 3.01 2.72 2.46 2.36 2.36 2.16 2.02 1.99 2.04 2.15 2.23 2.38 2.45 2.42 2.38 2.34 2.32 2.33 2.23 2.12 2.36 2.44 2.28 2.01 1.74 1.27 1.05 1.12 1.37 1.47 1.42 1.31 1.36 1.52 1.63
2.10 2.40 2.70 2.89 2.93 2.85 2.82 2.79 2.75 2.54 2.29 2.15 2.09 1.96 1.92 1.94 1.85 1.85 1.95 2.14 2.20 2.12 2.10 2.24 2.40 2.37 2.21 2.05 2.15 2.25 2.39 2.32 2.01 1.64 1.23 1.15 1.17 1.11 1.23 1.25 1.25 1.33 1.54
1.89 2.15 2.33 2.47 2.53 2.48 2.40 2.36 2.37 2.31 2.24 2.09 1.94 1.94 1.98 1.91 1.78 1.72 1.74 1.85 1.92 1.91 1.88 1.92 2.03 2.06 2.04 2.11 2.14 2.15 2.25 2.24 2.12 2.00 1.59 1.36 1.23 0.97 1.03 1.10 1.17 1.22 1.32

GEFSSE_prec_meanprecacc_162.txt.gz
Total_Precipitation_Accumulation
0.14 0.09 0.20 0.15 0.10 0.12 0.15 0.17 0.20 0.21 0.22 0.21 0.21 0.22 0.18 0.13 0.12 0.12 0.20 0.26 0.27 0.30 0.32 0.33 0.40 0.41 0.41 0.43 0.43 0.39 0.38 0.37 0.39 0.39 0.39 0.43 0.50 0.68 0.83 0.80 0.79 0.56 0.48
0.09 0.07 0.19 0.16 0.10 0.12 0.14 0.18 0.19 0.19 0.19 0.18 0.20 0.20 0.17 0.13 0.12 0.11 0.16 0.24 0.29 0.29 0.26 0.28 0.30 0.31 0.32 0.32 0.30 0.28 0.29 0.33 0.37 0.40 0.40 0.38 0.49 0.72 0.84 0.79 0.83 0.51 0.42
0.08 0.08 0.15 0.19 0.14 0.11 0.13 0.17 0.21 0.21 0.17 0.16 0.17 0.17 0.16 0.15 0.16 0.15 0.16 0.24 0.32 0.30 0.25 0.25 0.25 0.25 0.25 0.23 0.21 0.21 0.24 0.32 0.38 0.47 0.57 0.50 0.40 0.73 0.86 0.77 0.56 0.38 0.41
0.09 0.09 0.11 0.16 0.16 0.14 0.14 0.16 0.19 0.20 0.19 0.20 0.21 0.18 0.17 0.17 0.18 0.17 0.17 0.20 0.25 0.24 0.22 0.17 0.18 0.19 0.17 0.14 0.14 0.18 0.24 0.33 0.42 0.61 0.87 0.75 0.41 0.62 0.75 0.63 0.48 0.39 0.40
0.12 0.10 0.14 0.17 0.20 0.19 0.16 0.18 0.20 0.21 0.22 0.23 0.21 0.20 0.19 0.19 0.19 0.17 0.16 0.18 0.19 0.17 0.16 0.16 0.17 0.16 0.13 0.10 0.11 0.17 0.24 0.33 0.42 0.66 0.77 0.77 0.70 0.63 0.61 0.55 0.50 0.52 0.47
0.18 0.14 0.19 0.22 0.21 0.24 0.21 0.20 0.22 0.22 0.22 0.21 0.19 0.18 0.18 0.20 0.21 0.19 0.17 0.19 0.21 0.21 0.18 0.18 0.19 0.18 0.14 0.11 0.13 0.17 0.22 0.33 0.42 0.49 0.52 0.57 0.61 0.61 0.59 0.62 0.64 0.61 0.54
0.35 0.27 0.28 0.31 0.29 0.25 0.21 0.21 0.21 0.21 0.23 0.22 0.19 0.19 0.20 0.21 0.21 0.19 0.17 0.16 0.17 0.20 0.21 0.20 0.20 0.17 0.18 0.18 0.17 0.19 0.26 0.38 0.45 0.46 0.40 0.62 0.64 0.47 0.61 0.79 0.92 0.82 0.66
0.48 0.43 0.37 0.35 0.32 0.29 0.24 0.24 0.25 0.23 0.23 0.24 0.23 0.21 0.20 0.19 0.19 0.19 0.19 0.16 0.14 0.14 0.17 0.20 0.23 0.20 0.18 0.23 0.22 0.22 0.28 0.35 0.36 0.39 0.36 0.50 0.46 0.43 0.61 0.84 0.99 0.95 0.81
0.59 0.55 0.47 0.41 0.35 0.34 0.31 0.30 0.30 0.29 0.28 0.26 0.24 0.23 0.21 0.19 0.18 0.19 0.20 0.19 0.16 0.15 0.15 0.17 0.19 0.18 0.17 0.21 0.27 0.30 0.35 0.45 0.47 0.50 0.45 0.59 0.52 0.58 0.76 0.93 1.06 1.04 0.99
0.86 0.66 0.57 0.55 0.50 0.45 0.41 0.40 0.40 0.35 0.34 0.33 0.29 0.29 0.28 0.28 0.25 0.27 0.26 0.25 0.25 0.23 0.20 0.19 0.21 0.21 0.21 0.22 0.26 0.40 0.53 0.49 0.38 0.48 0.64 0.57 0.56 0.79 1.03 1.12 1.23 1.24 1.19
1.14 0.93 0.77 0.70 0.65 0.59 0.54 0.52 0.55 0.52 0.50 0.47 0.45 0.43 0.41 0.40 0.44 0.47 0.42 0.46 0.43 0.42 0.43 0.42 0.43 0.42 0.40 0.32 0.37 0.58 0.62 0.41 0.49 0.69 0.76 0.60 0.73 1.05 1.29 1.37 1.38 1.40 1.36
1.32 1.06 0.99 0.91 0.81 0.72 0.60 0.68 0.81 0.75 0.72 0.67 0.73 0.69 0.66 0.72 0.69 0.54 0.61 0.78 0.92 0.96 0.93 1.00 1.11 0.90 0.71 0.72 1.18 1.21 0.53 0.43 0.68 0.81 0.86 0.77 0.99 1.37 1.56 1.65 1.62 1.54 1.48
1.60 1.31 1.20 1.11 1.01 0.97 0.97 0.90 0.93 0.91 0.96 0.92 0.98 1.04 1.05 0.95 0.80 0.76 0.89 1.12 1.31 1.36 1.32 1.63 1.68 1.22 1.29 1.58 1.70 1.43 0.80 0.75 0.95 0.97 1.16 1.22 1.27 1.69 2.09 2.08 2.01 1.83 1.68
1.90 1.61 1.43 1.34 1.30 1.25 1.18 1.13 1.07 1.10 1.15 1.18 1.28 1.31 1.41 1.46 1.35 1.32 1.40 1.48 1.65 1.75 1.95 2.07 2.18 1.90 1.89 1.79 1.66 1.50 1.31 1.36 1.30 1.53 1.88 1.74 1.51 1.76 2.43 2.57 2.45 2.23 1.87
2.00 1.76 1.73 1.54 1.44 1.45 1.51 1.55 1.45 1.51 1.50 1.49 1.60 1.69 1.77 1.96 1.94 1.89 1.79 1.80 1.75 1.94 2.13 2.42 2.35 2.59 2.53 2.25 1.90 1.71 1.70 1.68 1.60 1.81 2.08 2.16 2.00 2.02 2.67 3.08 2.96 2.66 2.26
1.95 1.84 1.81 1.72 1.77 1.87 1.87 1.87 1.95 1.98 1.96 1.92 1.90 1.95 2.00 2.19 2.41 2.33 2.11 2.08 1.96 2.03 2.33 2.59 2.61 2.98 2.82 2.66 2.18 2.02 1.87 1.78 1.74 1.92 2.13 2.35 2.32 2.27 2.56 3.00 3.25 3.15 2.76
1.74 1.86 2.02 2.16 2.30 2.44 2.49 2.48 2.43 2.45 2.35 2.32 2.43 2.48 2.52 2.51 2.55 2.41 2.25 2.16 2.27 2.40 2.59 2.63 2.73 3.03 2.76 2.65 2.45 2.27 2.06 1.87 1.77 1.96 2.22 2.52 2.34 2.26 2.54 2.90 3.26 3.19 3.00
1.70 1.85 2.11 2.26 2.54 2.74 2.83 2.93 2.93 2.87 2.73 2.77 2.75 2.76 2.77 2.67 2.57 2.61 2.36 2.17 2.41 2.56 2.73 2.88 2.85 2.91 2.90 2.85 2.68 2.33 2.17 2.05 1.83 1.90 2.02 2.17 2.32 1.96 2.32 2.85 3.02 2.89 2.90
1.99 2.25 2.59 2.68 2.65 2.74 2.94 3.08 2.94 2.88 2.77 2.71 2.62 2.60 2.55 2.49 2.48 2.73 2.52 2.49 2.63 2.82 2.73 2.55 2.89 3.01 2.94 2.90 2.60 2.42 2.06 1.91 1.85 1.77 1.85 1.94 2.15 2.09 2.09 2.27 2.70 2.63 2.83
2.34 2.67 2.79 2.86 3.08 3.37 3.58 3.49 3.22 2.88 2.65 2.55 2.44 2.32 2.32 2.41 2.44 2.69 2.47 2.54 2.73 2.89 2.93 2.93 2.99 2.97 2.85 2.90 2.56 2.31 1.99 1.68 1.63 1.58 1.51 1.66 1.77 1.60 1.68 1.85 2.18 1.96 2.19
2.37 2.57 2.81 3.14 3.52 3.63 3.53 3.49 3.42 3.08 2.77 2.42 2.19 2.18 2.27 2.24 2.35 2.61 2.34 2.65 2.78 2.79 2.92 2.97 3.09 2.97 2.81 2.98 2.83 2.32 1.84 1.53 1.37 1.25 1.28 1.39 1.37 1.46 1.69 1.97 2.22 2.24 2.03
2.32 2.56 2.89 3.18 3.52 3.48 3.58 3.74 3.62 3.35 2.77 2.40 2.19 2.16 2.20 2.21 2.25 2.39 2.65 2.70 2.77 2.81 2.84 2.80 2.83 2.64 2.45 2.80 2.83 2.60 2.00 1.62 1.28 1.10 1.27 1.26 1.36 1.62 1.65 1.70 2.00 2.30 2.20
2.43 2.79 3.05 3.23 3.31 3.34 3.47 3.53 3.21 2.97 2.55 2.42 2.40 2.29 2.22 2.31 2.35 2.46 2.62 2.71 2.63 2.54 2.59 2.68 2.58 2.44 2.27 2.40 2.67 2.68 2.19 1.70 1.35 1.11 1.15 1.23 1.54 1.71 1.64 1.62 1.63 1.73 1.80
2.44 2.81 3.18 3.16 3.13 3.09 3.21 3.28 3.08 2.79 2.52 2.41 2.41 2.19 2.05 2.03 2.08 2.18 2.25 2.41 2.47 2.45 2.41 2.37 2.35 2.36 2.29 2.16 2.39 2.47 2.32 2.05 1.78 1.30 1.07 1.13 1.40 1.52 1.47 1.37 1.43 1.60 1.71
2.13 2.42 2.73 2.94 2.98 2.90 2.89 2.88 2.83 2.62 2.37 2.21 2.12 1.99 1.95 1.98 1.89 1.88 1.98 2.17 2.22 2.14 2.13 2.26 2.42 2.40 2.24 2.09 2.18 2.28 2.41 2.34 2.04 1.68 1.26 1.18 1.20 1.14 1.26 1.28 1.30 1.40 1.61
1.91 2.16 2.35 2.50 2.56 2.53 2.47 2.47 2.48 2.40 2.32 2.15 1.98 1.97 2.00 1.95 1.81 1.75 1.77 1.87 1.94 1.93 1.90 1.93 2.04 2.08 2.06 2.14 2.16 2.16 2.26 2.25 2.14 2.02 1.62 1.39 1.27 1.00 1.06 1.13 1.21 1.27 1.36

GEFSSE_prec_meanprecacc_168.txt.gz
Total_Precipitation_Accumulation
0.14 0.09 0.20 0.16 0.11 0.13 0.16 0.19 0.22 0.24 0.24 0.23 0.23 0.24 0.20 0.15 0.14 0.15 0.24 0.35 0.35 0.37 0.38 0.39 0.47 0.49 0.48 0.48 0.48 0.43 0.41 0.42 0.43 0.43 0.44 0.49 0.55 0.73 0.92 0.89 0.89 0.62 0.52
0.09 0.07 0.20 0.17 0.11 0.13 0.16 0.20 0.21 0.21 0.21 0.20 0.22 0.22 0.20 0.16 0.14 0.14 0.22 0.35 0.38 0.37 0.33 0.36 0.38 0.39 0.39 0.36 0.34 0.32 0.32 0.38 0.41 0.46 0.46 0.44 0.54 0.80 0.95 0.91 0.99 0.56 0.46
0.08 0.08 0.15 0.19 0.14 0.12 0.15 0.20 0.23 0.23 0.19 0.18 0.19 0.20 0.19 0.18 0.19 0.20 0.26 0.40 0.46 0.40 0.34 0.35 0.33 0.33 0.32 0.27 0.24 0.24 0.28 0.37 0.45 0.57 0.70 0.58 0.44 0.81 0.97 0.89 0.65 0.42 0.44
0.09 0.10 0.12 0.17 0.17 0.15 0.15 0.20 0.23 0.23 0.22 0.23 0.23 0.20 0.19 0.19 0.20 0.21 0.25 0.32 0.37 0.34 0.30 0.26 0.26 0.25 0.21 0.16 0.17 0.21 0.28 0.39 0.52 0.78 1.05 0.85 0.46 0.67 0.83 0.71 0.53 0.42 0.43
0.13 0.10 0.16 0.19 0.22 0.20 0.17 0.20 0.23 0.25 0.25 0.26 0.24 0.22 0.21 0.21 0.21 0.21 0.22 0.24 0.26 0.25 0.23 0.22 0.23 0.21 0.17 0.13 0.14 0.20 0.27 0.37 0.52 0.85 0.93 0.93 0.80 0.69 0.67 0.62 0.55 0.56 0.51
0.19 0.16 0.20 0.23 0.22 0.25 0.22 0.23 0.26 0.26 0.26 0.24 0.22 0.22 0.21 0.22 0.24 0.22 0.21 0.23 0.27 0.27 0.24 0.24 0.24 0.23 0.18 0.15 0.16 0.19 0.25 0.38 0.54 0.60 0.64 0.73 0.68 0.65 0.63 0.68 0.69 0.66 0.59
0.38 0.31 0.30 0.33 0.31 0.27 0.24 0.24 0.24 0.25 0.28 0.25 0.23 0.23 0.22 0.24 0.23 0.21 0.20 0.20 0.22 0.25 0.25 0.24 0.24 0.20 0.22 0.23 0.20 0.21 0.28 0.44 0.56 0.54 0.52 0.78 0.71 0.50 0.66 0.83 0.97 0.87 0.70
0.51 0.48 0.41 0.39 0.37 0.34 0.29 0.29 0.31 0.28 0.28 0.28 0.27 0.24 0.23 0.21 0.21 0.21 0.21 0.19 0.16 0.18 0.21 0.24 0.27 0.24 0.23 0.27 0.24 0.23 0.29 0.40 0.41 0.45 0.44 0.58 0.50 0.47 0.65 0.87 1.03 0.98 0.84
0.63 0.59 0.50 0.44 0.38 0.38 0.36 0.36 0.38 0.36 0.34 0.32 0.29 0.25 0.22 0.20 0.20 0.20 0.21 0.20 0.18 0.17 0.18 0.20 0.22 0.21 0.20 0.24 0.30 0.32 0.36 0.48 0.51 0.54 0.49 0.62 0.54 0.61 0.80 0.98 1.09 1.06 1.01
0.95 0.75 0.63 0.60 0.57 0.52 0.46 0.43 0.45 0.40 0.38 0.39 0.34 0.32 0.30 0.29 0.26 0.28 0.27 0.26 0.26 0.25 0.22 0.20 0.22 0.23 0.23 0.24 0.28 0.41 0.55 0.51 0.40 0.50 0.68 0.59 0.57 0.82 1.07 1.16 1.26 1.26 1.21
1.24 1.04 0.87 0.78 0.74 0.69 0.61 0.54 0.58 0.55 0.52 0.52 0.50 0.47 0.44 0.44 0.46 0.50 0.44 0.47 0.44 0.44 0.45 0.43 0.44 0.44 0.41 0.33 0.38 0.59 0.64 0.45 0.55 0.78 0.83 0.62 0.74 1.07 1.33 1.40 1.41 1.43 1.39
1.40 1.14 1.07 1.00 0.87 0.78 0.67 0.74 0.90 0.81 0.76 0.75 0.80 0.76 0.75 0.81 0.77 0.59 0.63 0.79 0.93 0.97 0.94 1.01 1.12 0.91 0.72 0.75 1.20 1.24 0.57 0.52 0.75 0.91 0.93 0.79 1.01 1.40 1.59 1.67 1.65 1.56 1.50
1.67 1.40 1.30 1.21 1.10 1.06 1.11 1.01 1.05 1.04 1.07 1.03 1.07 1.11 1.13 1.01 0.87 0.82 0.93 1.14 1.33 1.38 1.36 1.66 1.71 1.24 1.32 1.62 1.73 1.45 0.84 0.79 1.00 1.04 1.22 1.25 1.28 1.71 2.12 2.12 2.04 1.85 1.70
1.98 1.70 1.53 1.45 1.42 1.39 1.31 1.27 1.18 1.20 1.24 1.28 1.35 1.36 1.47 1.54 1.43 1.40 1.48 1.53 1.70 1.81 2.03 2.14 2.25 1.94 1.92 1.82 1.68 1.52 1.33 1.38 1.33 1.60 1.97 1.78 1.52 1.78 2.45 2.61 2.48 2.27 1.90
2.12 1.86 1.83 1.65 1.55 1.57 1.64 1.67 1.54 1.62 1.58 1.56 1.67 1.74 1.81 2.01 2.00 1.97 1.86 1.86 1.80 1.98 2.18 2.48 2.40 2.63 2.56 2.28 1.93 1.73 1.72 1.72 1.65 1.89 2.16 2.20 2.04 2.04 2.69 3.10 3.00 2.71 2.30
2.06 1.93 1.91 1.81 1.87 1.98 1.98 1.98 2.05 2.06 2.03 1.98 1.95 1.99 2.03 2.24 2.46 2.39 2.17 2.14 2.03 2.10 2.41 2.64 2.65 3.02 2.85 2.69 2.23 2.06 1.91 1.84 1.81 2.00 2.23 2.42 2.36 2.30 2.59 3.02 3.28 3.19 2.81
1.85 1.97 2.14 2.28 2.43 2.56 2.59 2.56 2.49 2.51 2.41 2.39 2.52 2.54 2.55 2.54 2.59 2.47 2.32 2.23 2.34 2.46 2.63 2.67 2.77 3.08 2.81 2.69 2.50 2.32 2.12 1.94 1.84 2.02 2.31 2.61 2.39 2.30 2.57 2.93 3.29 3.23 3.06
1.81 1.97 2.22 2.36 2.66 2.87 2.94 3.04 3.02 2.94 2.79 2.85 2.84 2.84 2.82 2.73 2.62 2.67 2.43 2.24 2.48 2.61 2.77 2.93 2.90 2.97 2.97 2.92 2.76 2.41 2.26 2.15 1.91 1.96 2.09 2.26 2.42 2.05 2.41 2.91 3.08 2.95 2.97
2.06 2.34 2.71 2.80 2.76 2.86 3.05 3.20 3.04 2.98 2.87 2.80 2.71 2.71 2.62 2.54 2.52 2.78 2.59 2.56 2.68 2.87 2.77 2.59 2.95 3.07 3.01 2.99 2.67 2.51 2.15 2.03 1.96 1.87 1.92 2.02 2.24 2.20 2.19 2.35 2.77 2.68 2.90
2.40 2.75 2.90 2.96 3.19 3.48 3.68 3.59 3.34 3.00 2.76 2.63 2.54 2.42 2.39 2.46 2.50 2.75 2.55 2.59 2.78 2.96 3.01 3.00 3.08 3.05 2.92 2.98 2.63 2.42 2.09 1.78 1.75 1.70 1.58 1.74 1.85 1.68 1.76 1.93 2.26 2.02 2.25
2.43 2.66 2.91 3.24 3.61 3.72 3.63 3.58 3.50 3.18 2.88 2.51 2.27 2.25 2.33 2.30 2.41 2.67 2.41 2.70 2.85 2.88 2.99 3.02 3.16 3.05 2.88 3.05 2.93 2.43 1.95 1.66 1.50 1.36 1.37 1.48 1.45 1.53 1.76 2.05 2.32 2.35 2.11
2.37 2.64 2.99 3.27 3.60 3.57 3.68 3.83 3.71 3.45 2.86 2.48 2.27 2.23 2.25 2.26 2.28 2.42 2.70 2.75 2.83 2.90 2.91 2.86 2.89 2.70 2.52 2.87 2.92 2.70 2.11 1.74 1.39 1.18 1.36 1.35 1.44 1.67 1.71 1.77 2.08 2.40 2.30
2.47 2.87 3.12 3.31 3.40 3.44 3.56 3.61 3.29 3.07 2.64 2.50 2.47 2.34 2.26 2.34 2.38 2.48 2.65 2.74 2.67 2.60 2.65 2.74 2.64 2.49 2.34 2.47 2.74 2.76 2.29 1.82 1.46 1.21 1.22 1.29 1.59 1.76 1.69 1.69 1.70 1.82 1.89
2.48 2.89 3.27 3.25 3.22 3.17 3.29 3.35 3.16 2.86 2.60 2.47 2.46 2.24 2.08 2.05 2.10 2.20 2.27 2.43 2.49 2.48 2.46 2.41 2.39 2.41 2.36 2.24 2.45 2.53 2.38 2.14 1.89 1.41 1.15 1.19 1.44 1.56 1.51 1.41 1.48 1.68 1.80
2.16 2.47 2.82 3.04 3.07 2.97 2.97 2.97 2.93 2.70 2.44 2.27 2.20 2.08 2.01 2.02 1.91 1.90 2.00 2.19 2.24 2.16 2.16 2.29 2.46 2.43 2.29 2.16 2.26 2.35 2.48 2.40 2.10 1.78 1.37 1.27 1.27 1.20 1.31 1.33 1.35 1.45 1.66
1.95 2.20 2.41 2.58 2.65 2.61 2.55 2.55 2.57 2.47 2.38 2.20 2.04 2.05 2.06 1.98 1.83 1.77 1.79 1.89 1.95 1.95 1.92 1.97 2.08 2.12 2.10 2.19 2.22 2.21 2.31 2.31 2.20 2.09 1.70 1.47 1.35 1.08 1.12 1.19 1.27 1.32 1.41

GEFSSE_prec_meanprecacc_174.txt.gz
Total_Precipitation_Accumulation
0.17 0.11 0.21 0.16 0.11 0.13 0.16 0.19 0.22 0.24 0.24 0.23 0.23 0.25 0.21 0.17 0.16 0.19 0.30 0.43 0.44 0.44 0.44 0.44 0.54 0.56 0.54 0.53 0.54 0.51 0.47 0.46 0.47 0.49 0.49 0.53 0.59 0.78 0.98 0.94 0.91 0.64 0.56
0.10 0.08 0.20 0.17 0.12 0.13 0.16 0.20 0.22 0.21 0.21 0.20 0.22 0.23 0.20 0.17 0.17 0.21 0.32 0.47 0.47 0.44 0.40 0.43 0.47 0.45 0.43 0.41 0.39 0.38 0.38 0.44 0.46 0.52 0.51 0.46 0.58 0.86 1.02 0.95 1.00 0.58 0.49
0.09 0.09 0.15 0.20 0.15 0.13 0.16 0.20 0.24 0.23 0.20 0.19 0.20 0.21 0.19 0.20 0.22 0.28 0.38 0.51 0.56 0.51 0.46 0.48 0.41 0.37 0.35 0.31 0.29 0.30 0.33 0.42 0.49 0.64 0.74 0.59 0.47 0.88 1.05 0.94 0.68 0.43 0.47
0.10 0.11 0.13 0.17 0.18 0.15 0.16 0.20 0.23 0.24 0.23 0.23 0.24 0.21 0.20 0.22 0.24 0.27 0.35 0.44 0.49 0.45 0.41 0.33 0.30 0.28 0.23 0.18 0.20 0.25 0.32 0.43 0.58 0.85 1.08 0.87 0.49 0.73 0.89 0.75 0.56 0.44 0.45
0.13 0.11 0.17 0.20 0.22 0.20 0.17 0.20 0.23 0.26 0.27 0.27 0.25 0.23 0.22 0.23 0.24 0.24 0.26 0.31 0.33 0.30 0.28 0.26 0.26 0.23 0.19 0.14 0.16 0.22 0.31 0.44 0.61 0.92 0.97 0.96 0.85 0.74 0.71 0.66 0.59 0.58 0.54
0.20 0.16 0.20 0.24 0.24 0.25 0.23 0.23 0.26 0.27 0.28 0.26 0.25 0.24 0.22 0.25 0.27 0.25 0.25 0.28 0.31 0.31 0.28 0.28 0.27 0.24 0.20 0.17 0.18 0.23 0.30 0.46 0.62 0.64 0.66 0.76 0.73 0.69 0.66 0.71 0.73 0.69 0.61
0.39 0.32 0.31 0.34 0.32 0.30 0.26 0.25 0.25 0.26 0.29 0.26 0.25 0.25 0.23 0.25 0.25 0.24 0.24 0.24 0.25 0.29 0.29 0.28 0.27 0.23 0.26 0.25 0.22 0.25 0.34 0.53 0.62 0.57 0.54 0.80 0.74 0.53 0.67 0.86 1.00 0.89 0.71
0.53 0.50 0.42 0.41 0.38 0.36 0.31 0.31 0.32 0.29 0.29 0.30 0.29 0.26 0.23 0.22 0.22 0.22 0.23 0.20 0.18 0.20 0.23 0.26 0.29 0.27 0.27 0.30 0.25 0.25 0.34 0.46 0.47 0.50 0.46 0.59 0.51 0.49 0.66 0.89 1.04 1.00 0.86
0.65 0.61 0.51 0.44 0.39 0.39 0.38 0.38 0.39 0.37 0.35 0.33 0.31 0.27 0.23 0.21 0.20 0.21 0.22 0.21 0.18 0.18 0.19 0.21 0.23 0.24 0.23 0.27 0.32 0.34 0.41 0.54 0.56 0.60 0.52 0.63 0.56 0.64 0.82 0.99 1.10 1.07 1.03
0.98 0.76 0.63 0.60 0.57 0.52 0.47 0.44 0.46 0.41 0.40 0.41 0.37 0.34 0.32 0.30 0.26 0.29 0.27 0.26 0.26 0.26 0.23 0.21 0.23 0.24 0.25 0.26 0.30 0.45 0.60 0.56 0.47 0.60 0.72 0.61 0.60 0.84 1.10 1.17 1.27 1.27 1.22
1.32 1.08 0.87 0.78 0.74 0.69 0.61 0.55 0.59 0.57 0.54 0.54 0.52 0.50 0.46 0.45 0.47 0.50 0.44 0.47 0.45 0.45 0.46 0.44 0.45 0.45 0.43 0.35 0.40 0.61 0.68 0.52 0.63 0.85 0.89 0.67 0.77 1.09 1.35 1.41 1.43 1.44 1.41
1.48 1.18 1.09 1.01 0.88 0.79 0.68 0.75 0.91 0.82 0.77 0.76 0.82 0.78 0.77 0.82 0.78 0.60 0.63 0.80 0.94 0.98 0.95 1.03 1.13 0.93 0.74 0.76 1.22 1.28 0.65 0.61 0.84 0.98 0.98 0.83 1.04 1.42 1.61 1.69 1.66 1.57 1.51
1.76 1.44 1.33 1.23 1.12 1.09 1.15 1.06 1.08 1.07 1.09 1.05 1.09 1.13 1.14 1.02 0.88 0.84 0.94 1.15 1.34 1.40 1.38 1.68 1.74 1.27 1.34 1.65 1.76 1.52 0.93 0.88 1.10 1.12 1.28 1.29 1.31 1.73 2.13 2.13 2.05 1.86 1.71
2.08 1.78 1.58 1.49 1.47 1.46 1.42 1.36 1.25 1.26 1.28 1.30 1.38 1.39 1.49 1.55 1.45 1.42 1.49 1.54 1.71 1.82 2.04 2.17 2.27 1.98 1.95 1.85 1.72 1.59 1.41 1.48 1.40 1.66 2.03 1.83 1.56 1.80 2.46 2.62 2.49 2.28 1.90
2.22 1.96 1.91 1.71 1.61 1.63 1.73 1.78 1.61 1.68 1.63 1.59 1.69 1.77 1.85 2.03 2.02 1.98 1.87 1.87 1.81 2.00 2.21 2.50 2.43 2.67 2.61 2.32 1.96 1.78 1.79 1.84 1.73 1.95 2.22 2.25 2.08 2.08 2.72 3.12 3.02 2.72 2.32
2.18 2.03 2.00 1.88 1.94 2.03 2.01 2.04 2.10 2.11 2.07 2.01 1.97 2.01 2.06 2.26 2.47 2.39 2.18 2.16 2.05 2.11 2.42 2.66 2.68 3.07 2.89 2.73 2.28 2.11 1.97 1.92 1.88 2.06 2.27 2.45 2.39 2.34 2.64 3.06 3.32 3.22 2.84
1.94 2.07 2.23 2.35 2.52 2.65 2.64 2.59 2.51 2.55 2.45 2.44 2.56 2.56 2.58 2.57 2.60 2.47 2.33 2.24 2.35 2.48 2.65 2.69 2.79 3.11 2.85 2.74 2.56 2.38 2.18 2.00 1.92 2.08 2.36 2.63 2.42 2.34 2.62 2.99 3.34 3.28 3.10
1.96 2.09 2.33 2.44 2.79 2.99 3.03 3.09 3.04 2.99 2.84 2.89 2.88 2.88 2.85 2.76 2.64 2.68 2.45 2.26 2.49 2.63 2.79 2.95 2.92 2.99 3.01 2.97 2.83 2.50 2.33 2.21 1.97 2.03 2.14 2.30 2.45 2.08 2.45 2.98 3.14 3.00 3.01
2.26 2.47 2.81 2.89 2.85 2.94 3.12 3.26 3.09 3.04 2.93 2.84 2.75 2.75 2.65 2.56 2.54 2.80 2.60 2.57 2.70 2.90 2.80 2.61 2.96 3.08 3.03 3.02 2.72 2.57 2.21 2.10 2.03 1.94 1.99 2.09 2.29 2.24 2.23 2.40 2.82 2.73 2.94
2.51 2.82 2.97 3.04 3.27 3.55 3.74 3.65 3.40 3.06 2.82 2.70 2.59 2.47 2.43 2.49 2.52 2.76 2.57 2.60 2.79 2.98 3.03 3.02 3.10 3.07 2.94 3.00 2.67 2.46 2.13 1.84 1.81 1.76 1.66 1.82 1.90 1.72 1.80 1.98 2.31 2.06 2.29
2.49 2.71 2.96 3.30 3.67 3.77 3.68 3.64 3.55 3.23 2.95 2.62 2.33 2.29 2.37 2.32 2.42 2.68 2.44 2.73 2.87 2.90 3.01 3.05 3.18 3.07 2.91 3.07 2.97 2.48 2.00 1.72 1.56 1.44 1.46 1.55 1.51 1.59 1.81 2.10 2.37 2.38 2.13
2.41 2.68 3.04 3.32 3.65 3.61 3.74 3.90 3.78 3.50 2.94 2.58 2.35 2.26 2.28 2.28 2.30 2.44 2.72 2.77 2.85 2.92 2.93 2.88 2.90 2.73 2.55 2.89 2.94 2.73 2.14 1.78 1.46 1.25 1.42 1.41 1.49 1.71 1.75 1.81 2.13 2.44 2.32
2.53 2.92 3.16 3.37 3.47 3.50 3.64 3.71 3.38 3.14 2.72 2.57 2.52 2.37 2.28 2.36 2.40 2.50 2.67 2.75 2.67 2.60 2.66 2.75 2.66 2.53 2.36 2.50 2.75 2.77 2.31 1.84 1.50 1.28 1.29 1.34 1.63 1.79 1.73 1.73 1.72 1.84 1.92
2.55 2.96 3.34 3.32 3.29 3.24 3.36 3.43 3.21 2.89 2.63 2.52 2.49 2.26 2.11 2.08 2.12 2.22 2.30 2.45 2.50 2.48 2.47 2.42 2.41 2.42 2.37 2.25 2.46 2.53 2.39 2.16 1.91 1.45 1.21 1.24 1.47 1.58 1.54 1.43 1.49 1.69 1.82
2.23 2.54 2.89 3.13 3.15 3.03 3.02 3.03 2.97 2.74 2.47 2.31 2.24 2.11 2.04 2.04 1.93 1.92 2.03 2.20 2.25 2.17 2.17 2.29 2.47 2.44 2.30 2.17 2.26 2.36 2.49 2.42 2.12 1.81 1.40 1.29 1.29 1.22 1.32 1.34 1.37 1.46 1.67
2.01 2.28 2.48 2.66 2.73 2.67 2.60 2.60 2.61 2.50 2.41 2.22 2.07 2.08 2.09 2.00 1.85 1.79 1.80 1.91 1.96 1.95 1.93 1.97 2.09 2.13 2.11 2.20 2.23 2.22 2.33 2.33 2.22 2.10 1.72 1.49 1.36 1.09 1.13 1.19 1.28 1.33 1.42

GEFSSE_prec_meanprecacc_180.txt.gz
Total_Precipitation_Accumulation
0.20 0.17 0.27 0.18 0.13 0.14 0.17 0.20 0.23 0.25 0.25 0.24 0.24 0.25 0.23 0.20 0.21 0.24 0.34 0.48 0.47 0.47 0.47 0.48 0.58 0.61 0.57 0.58 0.60 0.57 0.50 0.49 0.51 0.54 0.55 0.60 0.66 0.85 1.06 0.99 0.96 0.67 0.62
0.11 0.11 0.24 0.19 0.13 0.14 0.17 0.21 0.22 0.22 0.22 0.22 0.23 0.24 0.23 0.23 0.26 0.30 0.39 0.52 0.50 0.47 0.43 0.47 0.52 0.50 0.48 0.46 0.45 0.41 0.41 0.46 0.50 0.58 0.56 0.53 0.67 0.94 1.08 1.00 1.05 0.61 0.53
0.09 0.11 0.18 0.22 0.16 0.14 0.16 0.21 0.24 0.23 0.20 0.20 0.21 0.23 0.24 0.32 0.41 0.41 0.46 0.56 0.61 0.56 0.50 0.52 0.45 0.40 0.39 0.35 0.33 0.33 0.36 0.46 0.54 0.70 0.77 0.62 0.53 0.96 1.09 0.99 0.73 0.47 0.49
0.10 0.13 0.15 0.19 0.19 0.16 0.16 0.21 0.24 0.24 0.23 0.24 0.25 0.23 0.22 0.25 0.30 0.34 0.42 0.52 0.58 0.55 0.50 0.38 0.33 0.31 0.26 0.21 0.22 0.28 0.36 0.48 0.63 0.89 1.09 0.89 0.52 0.79 0.94 0.80 0.60 0.46 0.47
0.14 0.12 0.19 0.24 0.24 0.21 0.18 0.21 0.24 0.26 0.27 0.27 0.27 0.25 0.24 0.24 0.28 0.31 0.36 0.44 0.43 0.38 0.34 0.30 0.29 0.26 0.21 0.17 0.19 0.28 0.36 0.49 0.65 0.93 0.98 0.98 0.88 0.80 0.77 0.72 0.63 0.60 0.57
0.21 0.17 0.22 0.28 0.27 0.27 0.23 0.24 0.27 0.27 0.29 0.27 0.27 0.26 0.26 0.28 0.31 0.31 0.31 0.34 0.34 0.34 0.31 0.31 0.31 0.27 0.22 0.19 0.20 0.26 0.34 0.50 0.65 0.64 0.67 0.77 0.76 0.73 0.71 0.77 0.78 0.72 0.64
0.40 0.34 0.32 0.37 0.36 0.32 0.27 0.26 0.26 0.27 0.30 0.27 0.27 0.27 0.26 0.28 0.29 0.28 0.28 0.27 0.28 0.32 0.32 0.31 0.31 0.25 0.29 0.29 0.25 0.28 0.38 0.57 0.63 0.58 0.55 0.81 0.75 0.56 0.71 0.91 1.05 0.92 0.72
0.54 0.51 0.44 0.44 0.42 0.40 0.34 0.32 0.33 0.30 0.30 0.31 0.30 0.27 0.25 0.24 0.25 0.26 0.26 0.24 0.21 0.23 0.26 0.30 0.33 0.29 0.30 0.34 0.29 0.28 0.38 0.50 0.47 0.50 0.47 0.60 0.53 0.52 0.71 0.93 1.08 1.02 0.87
0.66 0.62 0.54 0.49 0.44 0.46 0.43 0.40 0.40 0.38 0.37 0.36 0.33 0.28 0.24 0.23 0.23 0.24 0.25 0.24 0.23 0.23 0.24 0.26 0.28 0.28 0.28 0.31 0.35 0.37 0.44 0.58 0.57 0.61 0.53 0.63 0.58 0.67 0.87 1.02 1.12 1.09 1.04
1.00 0.78 0.65 0.63 0.61 0.57 0.54 0.49 0.48 0.43 0.42 0.43 0.38 0.36 0.33 0.32 0.28 0.31 0.31 0.30 0.32 0.32 0.27 0.24 0.28 0.27 0.31 0.30 0.33 0.47 0.64 0.60 0.48 0.61 0.72 0.62 0.63 0.87 1.13 1.19 1.29 1.29 1.24
1.35 1.10 0.89 0.79 0.76 0.72 0.66 0.59 0.64 0.60 0.57 0.56 0.54 0.52 0.47 0.45 0.47 0.51 0.46 0.50 0.50 0.50 0.50 0.48 0.50 0.48 0.48 0.39 0.44 0.66 0.71 0.54 0.63 0.85 0.90 0.69 0.80 1.12 1.38 1.43 1.44 1.45 1.43
1.50 1.21 1.11 1.02 0.89 0.82 0.71 0.77 0.93 0.85 0.78 0.76 0.83 0.78 0.77 0.82 0.78 0.60 0.64 0.82 0.97 1.02 0.99 1.06 1.17 0.96 0.77 0.79 1.25 1.30 0.67 0.62 0.85 0.99 1.00 0.87 1.08 1.46 1.64 1.71 1.68 1.58 1.53
1.77 1.46 1.34 1.24 1.14 1.11 1.18 1.07 1.09 1.08 1.09 1.05 1.09 1.13 1.14 1.02 0.89 0.84 0.95 1.17 1.36 1.42 1.39 1.71 1.76 1.29 1.36 1.67 1.78 1.54 0.95 0.90 1.11 1.13 1.30 1.32 1.35 1.77 2.17 2.16 2.09 1.88 1.72
2.12 1.80 1.60 1.50 1.49 1.49 1.44 1.37 1.26 1.27 1.29 1.32 1.39 1.40 1.49 1.55 1.45 1.42 1.49 1.54 1.71 1.83 2.05 2.18 2.29 1.99 1.97 1.87 1.73 1.60 1.43 1.50 1.42 1.67 2.04 1.87 1.60 1.84 2.50 2.65 2.52 2.31 1.93
2.31 2.00 1.95 1.73 1.63 1.65 1.74 1.79 1.62 1.69 1.64 1.61 1.72 1.79 1.86 2.04 2.03 1.99 1.87 1.87 1.82 2.00 2.21 2.52 2.45 2.69 2.63 2.34 1.98 1.80 1.81 1.87 1.75 1.96 2.23 2.29 2.11 2.12 2.77 3.17 3.06 2.77 2.37
2.26 2.09 2.05 1.92 1.96 2.05 2.03 2.05 2.11 2.12 2.08 2.03 2.00 2.04 2.08 2.28 2.48 2.41 2.19 2.17 2.06 2.12 2.43 2.67 2.70 3.09 2.92 2.76 2.31 2.14 2.00 1.95 1.91 2.07 2.29 2.48 2.42 2.38 2.70 3.14 3.39 3.29 2.90
2.03 2.14 2.30 2.41 2.59 2.69 2.67 2.62 2.53 2.57 2.48 2.47 2.59 2.59 2.62 2.59 2.61 2.49 2.35 2.25 2.36 2.49 2.65 2.70 2.81 3.14 2.88 2.78 2.61 2.43 2.23 2.05 1.95 2.11 2.39 2.68 2.46 2.39 2.69 3.08 3.43 3.36 3.18
2.06 2.17 2.42 2.53 2.87 3.05 3.09 3.14 3.08 3.02 2.87 2.92 2.92 2.92 2.89 2.79 2.67 2.71 2.48 2.28 2.50 2.64 2.81 2.97 2.94 3.02 3.03 3.00 2.87 2.54 2.38 2.27 2.03 2.08 2.19 2.34 2.49 2.12 2.52 3.08 3.26 3.09 3.10
2.39 2.58 2.92 3.03 2.97 3.06 3.24 3.37 3.18 3.09 2.96 2.87 2.79 2.79 2.69 2.60 2.57 2.83 2.63 2.59 2.72 2.91 2.82 2.63 2.99 3.11 3.05 3.04 2.75 2.61 2.27 2.17 2.09 1.99 2.03 2.12 2.31 2.28 2.28 2.47 2.92 2.82 3.03
2.68 2.96 3.08 3.17 3.40 3.70 3.88 3.77 3.52 3.15 2.87 2.74 2.63 2.51 2.45 2.51 2.54 2.79 2.59 2.62 2.81 3.00 3.05 3.04 3.14 3.10 2.97 3.04 2.69 2.49 2.19 1.91 1.87 1.81 1.68 1.84 1.93 1.76 1.84 2.02 2.36 2.12 2.38
2.65 2.83 3.05 3.40 3.79 3.90 3.78 3.72 3.63 3.29 3.01 2.67 2.38 2.33 2.41 2.36 2.44 2.71 2.46 2.75 2.88 2.93 3.04 3.07 3.20 3.10 2.94 3.10 2.98 2.50 2.03 1.75 1.60 1.46 1.48 1.59 1.55 1.63 1.85 2.13 2.40 2.43 2.19
2.51 2.76 3.10 3.39 3.74 3.70 3.80 3.97 3.86 3.60 3.04 2.68 2.48 2.35 2.34 2.34 2.35 2.47 2.75 2.79 2.87 2.95 2.95 2.89 2.92 2.75 2.57 2.92 2.97 2.76 2.16 1.80 1.48 1.26 1.44 1.44 1.54 1.75 1.79 1.83 2.15 2.47 2.35
2.60 2.98 3.20 3.42 3.55 3.60 3.74 3.82 3.50 3.28 2.84 2.69 2.64 2.46 2.35 2.42 2.45 2.54 2.70 2.78 2.70 2.64 2.68 2.77 2.67 2.54 2.39 2.53 2.77 2.78 2.31 1.84 1.51 1.29 1.30 1.35 1.65 1.81 1.74 1.74 1.76 1.87 1.94
2.61 3.04 3.41 3.39 3.39 3.33 3.46 3.55 3.33 2.98 2.69 2.57 2.53 2.31 2.17 2.14 2.19 2.28 2.35 2.49 2.54 2.52 2.50 2.45 2.43 2.44 2.39 2.28 2.48 2.54 2.40 2.17 1.91 1.46 1.21 1.25 1.49 1.60 1.56 1.45 1.53 1.73 1.84
2.30 2.64 2.99 3.22 3.26 3.14 3.11 3.13 3.14 2.88 2.55 2.38 2.30 2.17 2.09 2.10 1.99 1.98 2.07 2.24 2.27 2.20 2.19 2.31 2.49 2.46 2.32 2.20 2.29 2.37 2.50 2.43 2.13 1.81 1.40 1.29 1.30 1.23 1.33 1.35 1.38 1.48 1.68
2.10 2.39 2.59 2.76 2.83 2.77 2.70 2.68 2.71 2.63 2.48 2.28 2.11 2.11 2.12 2.03 1.88 1.83 1.84 1.93 1.98 1.98 1.95 1.98 2.10 2.15 2.14 2.23 2.24 2.23 2.34 2.33 2.22 2.11 1.72 1.49 1.36 1.09 1.13 1.19 1.28 1.33 1.43

GEFSSE_prec_meanprecacc_186.txt.gz
Total_Precipitation_Accumulation
0.22 0.21 0.33 0.24 0.17 0.18 0.20 0.23 0.25 0.27 0.27 0.26 0.26 0.28 0.27 0.25 0.26 0.29 0.38 0.51 0.52 0.53 0.52 0.53 0.64 0.69 0.64 0.62 0.63 0.59 0.53 0.52 0.55 0.58 0.59 0.66 0.73 0.91 1.11 1.02 0.99 0.70 0.65
0.12 0.13 0.29 0.23 0.16 0.17 0.19 0.24 0.24 0.24 0.24 0.24 0.26 0.28 0.29 0.32 0.34 0.37 0.43 0.56 0.55 0.53 0.47 0.52 0.58 0.58 0.57 0.51 0.47 0.44 0.43 0.49 0.54 0.63 0.60 0.58 0.74 0.99 1.12 1.03 1.08 0.64 0.56
0.10 0.12 0.20 0.25 0.18 0.16 0.18 0.23 0.26 0.25 0.23 0.22 0.23 0.26 0.32 0.42 0.51 0.49 0.51 0.61 0.66 0.60 0.54 0.56 0.50 0.46 0.46 0.39 0.36 0.36 0.40 0.51 0.59 0.75 0.80 0.66 0.57 1.00 1.13 1.02 0.75 0.49 0.52
0.10 0.13 0.15 0.21 0.21 0.19 0.18 0.22 0.25 0.26 0.25 0.25 0.28 0.28 0.31 0.36 0.41 0.42 0.49 0.57 0.63 0.59 0.53 0.42 0.38 0.35 0.33 0.26 0.27 0.31 0.39 0.53 0.69 0.93 1.12 0.92 0.53 0.84 1.00 0.85 0.62 0.49 0.50
0.15 0.12 0.20 0.26 0.27 0.24 0.19 0.22 0.25 0.28 0.29 0.29 0.29 0.29 0.30 0.32 0.37 0.37 0.42 0.49 0.48 0.42 0.37 0.33 0.33 0.29 0.26 0.21 0.23 0.31 0.40 0.54 0.70 0.96 1.00 1.00 0.90 0.85 0.83 0.78 0.67 0.64 0.60
0.21 0.18 0.23 0.30 0.30 0.29 0.25 0.24 0.28 0.31 0.32 0.30 0.30 0.29 0.30 0.33 0.35 0.35 0.35 0.40 0.39 0.37 0.33 0.34 0.35 0.32 0.26 0.22 0.23 0.28 0.38 0.56 0.68 0.66 0.69 0.80 0.79 0.79 0.77 0.84 0.84 0.76 0.67
0.41 0.35 0.34 0.40 0.39 0.36 0.29 0.27 0.27 0.29 0.34 0.33 0.31 0.30 0.29 0.31 0.34 0.33 0.33 0.32 0.32 0.34 0.34 0.35 0.36 0.30 0.33 0.33 0.29 0.31 0.42 0.62 0.65 0.59 0.58 0.86 0.81 0.62 0.79 0.98 1.10 0.95 0.75
0.55 0.53 0.47 0.49 0.48 0.47 0.38 0.34 0.35 0.34 0.33 0.34 0.33 0.29 0.28 0.28 0.31 0.32 0.32 0.29 0.25 0.25 0.29 0.34 0.39 0.35 0.35 0.39 0.34 0.33 0.42 0.53 0.49 0.53 0.49 0.64 0.57 0.58 0.79 1.03 1.13 1.04 0.89
0.68 0.65 0.58 0.55 0.50 0.54 0.50 0.43 0.43 0.42 0.40 0.39 0.36 0.31 0.28 0.27 0.29 0.30 0.30 0.29 0.26 0.26 0.28 0.31 0.35 0.34 0.32 0.36 0.41 0.41 0.48 0.61 0.60 0.64 0.55 0.67 0.61 0.72 0.93 1.10 1.18 1.13 1.07
1.03 0.82 0.69 0.69 0.68 0.66 0.63 0.54 0.52 0.46 0.46 0.46 0.41 0.38 0.37 0.37 0.34 0.37 0.35 0.34 0.35 0.35 0.32 0.31 0.35 0.34 0.36 0.34 0.39 0.52 0.68 0.63 0.51 0.63 0.75 0.64 0.66 0.92 1.20 1.25 1.32 1.33 1.27
1.38 1.14 0.93 0.83 0.82 0.78 0.71 0.65 0.69 0.66 0.62 0.60 0.58 0.55 0.51 0.50 0.52 0.55 0.50 0.56 0.56 0.56 0.57 0.56 0.58 0.55 0.53 0.43 0.49 0.71 0.74 0.56 0.65 0.87 0.93 0.72 0.84 1.18 1.45 1.49 1.48 1.49 1.47
1.52 1.23 1.14 1.05 0.92 0.86 0.75 0.81 1.00 0.91 0.83 0.82 0.88 0.81 0.80 0.87 0.83 0.64 0.72 0.93 1.07 1.13 1.09 1.16 1.27 1.02 0.81 0.82 1.29 1.34 0.70 0.64 0.87 1.01 1.03 0.91 1.14 1.53 1.70 1.77 1.73 1.63 1.58
1.79 1.47 1.37 1.27 1.17 1.17 1.24 1.11 1.14 1.12 1.14 1.10 1.14 1.17 1.17 1.04 0.92 0.88 1.03 1.28 1.48 1.54 1.50 1.79 1.81 1.32 1.38 1.71 1.82 1.57 0.98 0.92 1.14 1.15 1.33 1.35 1.40 1.82 2.23 2.23 2.15 1.94 1.78
2.14 1.82 1.63 1.54 1.53 1.54 1.49 1.42 1.31 1.32 1.32 1.36 1.44 1.43 1.52 1.58 1.48 1.47 1.53 1.59 1.77 1.90 2.13 2.22 2.33 2.03 2.01 1.89 1.75 1.63 1.48 1.54 1.46 1.71 2.09 1.90 1.64 1.90 2.55 2.70 2.59 2.38 1.99
2.34 2.03 1.98 1.77 1.67 1.70 1.78 1.83 1.66 1.73 1.68 1.65 1.76 1.83 1.89 2.07 2.05 2.02 1.90 1.90 1.84 2.03 2.24 2.55 2.48 2.73 2.67 2.37 2.00 1.84 1.86 1.91 1.80 2.00 2.28 2.32 2.16 2.17 2.83 3.23 3.13 2.85 2.43
2.30 2.12 2.08 1.95 2.00 2.09 2.06 2.08 2.14 2.16 2.13 2.07 2.03 2.07 2.12 2.31 2.51 2.43 2.22 2.20 2.08 2.14 2.45 2.70 2.74 3.14 2.98 2.82 2.36 2.19 2.05 2.01 1.98 2.15 2.37 2.54 2.47 2.43 2.78 3.21 3.45 3.36 2.96
2.09 2.17 2.32 2.44 2.62 2.73 2.71 2.64 2.56 2.61 2.52 2.51 2.63 2.63 2.66 2.63 2.66 2.53 2.39 2.29 2.40 2.53 2.68 2.72 2.84 3.17 2.93 2.84 2.68 2.49 2.29 2.12 2.03 2.19 2.48 2.76 2.52 2.44 2.74 3.14 3.50 3.43 3.25
2.13 2.21 2.45 2.56 2.91 3.10 3.12 3.17 3.11 3.05 2.91 2.97 2.97 2.96 2.94 2.84 2.73 2.78 2.54 2.34 2.56 2.68 2.85 3.01 2.97 3.04 3.08 3.06 2.95 2.63 2.46 2.35 2.09 2.16 2.28 2.43 2.59 2.20 2.60 3.14 3.33 3.15 3.15
2.46 2.66 2.98 3.08 3.02 3.11 3.29 3.41 3.22 3.13 3.01 2.93 2.84 2.84 2.74 2.65 2.64 2.91 2.71 2.67 2.77 2.96 2.87 2.67 3.03 3.15 3.11 3.11 2.81 2.68 2.35 2.24 2.16 2.05 2.11 2.20 2.39 2.35 2.38 2.54 2.97 2.87 3.09
2.74 3.04 3.18 3.27 3.48 3.76 3.94 3.83 3.58 3.20 2.92 2.80 2.69 2.57 2.52 2.57 2.60 2.86 2.65 2.67 2.85 3.07 3.12 3.10 3.21 3.16 3.03 3.10 2.72 2.53 2.24 1.96 1.92 1.87 1.75 1.92 2.01 1.83 1.92 2.11 2.47 2.19 2.43
2.71 2.89 3.11 3.50 3.88 3.99 3.86 3.79 3.70 3.36 3.06 2.74 2.45 2.41 2.50 2.44 2.51 2.78 2.52 2.80 2.93 3.00 3.12 3.15 3.28 3.17 2.99 3.15 3.03 2.55 2.07 1.79 1.64 1.51 1.55 1.67 1.64 1.70 1.93 2.23 2.49 2.52 2.28
2.55 2.80 3.14 3.45 3.80 3.77 3.88 4.04 3.94 3.68 3.10 2.75 2.56 2.44 2.43 2.43 2.42 2.53 2.83 2.85 2.94 3.03 3.04 2.99 3.01 2.83 2.63 2.97 3.02 2.82 2.23 1.86 1.51 1.29 1.49 1.50 1.60 1.82 1.88 1.90 2.20 2.54 2.43
2.65 3.04 3.25 3.47 3.59 3.65 3.80 3.89 3.57 3.35 2.90 2.74 2.71 2.53 2.42 2.49 2.52 2.62 2.79 2.87 2.80 2.72 2.77 2.86 2.77 2.65 2.47 2.59 2.82 2.84 2.37 1.92 1.57 1.32 1.32 1.38 1.68 1.86 1.82 1.82 1.80 1.93 2.01
2.65 3.09 3.47 3.47 3.45 3.39 3.52 3.61 3.39 3.04 2.75 2.61 2.59 2.38 2.24 2.20 2.25 2.36 2.43 2.58 2.64 2.60 2.60 2.54 2.51 2.53 2.48 2.36 2.55 2.58 2.44 2.22 1.98 1.52 1.25 1.27 1.51 1.63 1.61 1.50 1.59 1.80 1.90
2.33 2.67 3.04 3.30 3.33 3.20 3.16 3.19 3.21 2.98 2.65 2.45 2.36 2.23 2.17 2.17 2.04 2.04 2.14 2.32 2.35 2.26 2.25 2.38 2.57 2.54 2.39 2.26 2.36 2.43 2.55 2.48 2.20 1.89 1.47 1.34 1.32 1.25 1.35 1.39 1.44 1.52 1.71
2.14 2.42 2.63 2.82 2.88 2.82 2.74 2.74 2.79 2.72 2.60 2.37 2.18 2.18 2.19 2.10 1.93 1.87 1.89 1.99 2.03 2.03 2.00 2.04 2.17 2.23 2.21 2.31 2.34 2.32 2.42 2.41 2.30 2.18 1.79 1.54 1.40 1.11 1.15 1.22 1.33 1.39 1.47

GEFSSE_prec_meanprecacc_192.txt.gz
Total_Precipitation_Accumulation
0.26 0.25 0.38 0.27 0.21 0.21 0.23 0.26 0.28 0.30 0.29 0.29 0.29 0.31 0.30 0.29 0.30 0.33 0.42 0.57 0.56 0.58 0.58 0.63 0.73 0.74 0.68 0.66 0.66 0.61 0.55 0.53 0.57 0.60 0.61 0.69 0.77 0.96 1.16 1.08 1.09 0.77 0.69
0.15 0.17 0.32 0.26 0.19 0.20 0.22 0.26 0.26 0.26 0.27 0.28 0.30 0.32 0.34 0.37 0.39 0.41 0.48 0.63 0.60 0.58 0.55 0.62 0.66 0.63 0.61 0.54 0.51 0.47 0.45 0.50 0.56 0.66 0.63 0.61 0.79 1.03 1.17 1.11 1.21 0.70 0.61
0.11 0.14 0.22 0.28 0.22 0.20 0.21 0.26 0.28 0.28 0.26 0.26 0.27 0.31 0.37 0.48 0.57 0.54 0.56 0.68 0.73 0.67 0.62 0.64 0.56 0.50 0.50 0.42 0.40 0.39 0.42 0.53 0.62 0.81 0.89 0.70 0.61 1.05 1.18 1.10 0.83 0.53 0.55
0.10 0.14 0.17 0.23 0.24 0.21 0.21 0.25 0.28 0.29 0.27 0.29 0.33 0.35 0.40 0.44 0.48 0.49 0.55 0.66 0.72 0.66 0.62 0.48 0.42 0.38 0.36 0.29 0.31 0.35 0.43 0.57 0.76 1.07 1.26 0.98 0.57 0.86 1.04 0.91 0.69 0.54 0.53
0.15 0.12 0.21 0.27 0.29 0.28 0.22 0.24 0.27 0.31 0.31 0.32 0.35 0.39 0.41 0.42 0.45 0.44 0.48 0.58 0.57 0.50 0.43 0.37 0.37 0.32 0.28 0.23 0.25 0.34 0.44 0.60 0.78 1.13 1.11 1.07 0.96 0.88 0.87 0.83 0.73 0.69 0.62
0.21 0.18 0.24 0.32 0.32 0.33 0.27 0.26 0.30 0.33 0.34 0.32 0.34 0.38 0.40 0.43 0.44 0.42 0.43 0.49 0.47 0.43 0.37 0.37 0.38 0.33 0.28 0.24 0.25 0.30 0.40 0.61 0.78 0.75 0.79 0.90 0.85 0.82 0.81 0.88 0.89 0.81 0.70
0.42 0.36 0.35 0.41 0.42 0.40 0.33 0.29 0.30 0.32 0.36 0.35 0.35 0.37 0.37 0.40 0.41 0.40 0.40 0.39 0.37 0.38 0.36 0.37 0.38 0.32 0.35 0.35 0.31 0.33 0.44 0.66 0.73 0.67 0.71 1.01 0.88 0.67 0.83 1.01 1.13 0.99 0.78
0.57 0.56 0.49 0.50 0.50 0.50 0.41 0.37 0.38 0.37 0.36 0.36 0.37 0.34 0.34 0.34 0.37 0.38 0.37 0.33 0.29 0.28 0.31 0.37 0.41 0.37 0.37 0.42 0.37 0.34 0.44 0.59 0.55 0.61 0.60 0.73 0.62 0.63 0.84 1.06 1.16 1.08 0.92
0.70 0.68 0.61 0.57 0.52 0.56 0.52 0.46 0.46 0.46 0.43 0.41 0.40 0.35 0.32 0.32 0.34 0.35 0.36 0.33 0.30 0.29 0.30 0.34 0.37 0.35 0.35 0.39 0.42 0.42 0.49 0.65 0.69 0.73 0.61 0.71 0.63 0.76 0.97 1.14 1.21 1.17 1.10
1.07 0.85 0.73 0.73 0.72 0.67 0.64 0.55 0.54 0.49 0.49 0.49 0.44 0.41 0.40 0.44 0.43 0.42 0.40 0.38 0.38 0.38 0.35 0.34 0.38 0.36 0.38 0.36 0.40 0.53 0.69 0.66 0.57 0.68 0.80 0.67 0.67 0.96 1.24 1.28 1.35 1.36 1.31
1.42 1.19 0.98 0.89 0.87 0.81 0.73 0.66 0.71 0.68 0.65 0.64 0.61 0.58 0.57 0.69 0.69 0.63 0.56 0.60 0.59 0.59 0.61 0.59 0.62 0.58 0.55 0.45 0.51 0.72 0.77 0.62 0.72 0.92 0.97 0.73 0.87 1.21 1.49 1.51 1.50 1.51 1.51
1.55 1.27 1.19 1.11 0.99 0.91 0.78 0.84 1.06 0.96 0.88 0.90 0.95 0.88 0.95 1.06 1.04 0.75 0.78 0.98 1.10 1.16 1.13 1.19 1.31 1.05 0.85 0.86 1.31 1.37 0.75 0.70 0.93 1.05 1.05 0.92 1.16 1.55 1.72 1.80 1.76 1.65 1.60
1.85 1.53 1.42 1.33 1.23 1.23 1.31 1.16 1.21 1.21 1.23 1.23 1.24 1.25 1.28 1.14 1.03 0.99 1.12 1.36 1.55 1.60 1.57 1.85 1.89 1.41 1.46 1.76 1.85 1.60 1.03 0.98 1.18 1.20 1.35 1.36 1.42 1.84 2.25 2.26 2.19 1.98 1.80
2.21 1.88 1.68 1.58 1.58 1.62 1.57 1.50 1.36 1.37 1.38 1.44 1.51 1.48 1.58 1.66 1.58 1.58 1.66 1.71 1.89 2.02 2.27 2.35 2.46 2.13 2.08 1.93 1.77 1.67 1.51 1.62 1.55 1.74 2.10 1.91 1.66 1.92 2.58 2.72 2.62 2.40 2.00
2.41 2.09 2.04 1.80 1.71 1.76 1.85 1.90 1.71 1.80 1.74 1.72 1.80 1.88 1.93 2.13 2.13 2.11 2.00 2.02 1.95 2.15 2.38 2.70 2.61 2.84 2.76 2.42 2.03 1.86 1.88 1.95 1.86 2.05 2.31 2.33 2.17 2.19 2.86 3.25 3.15 2.86 2.44
2.38 2.18 2.13 2.00 2.04 2.14 2.11 2.13 2.19 2.21 2.20 2.12 2.06 2.09 2.14 2.35 2.57 2.52 2.30 2.28 2.17 2.23 2.55 2.78 2.80 3.23 3.06 2.89 2.41 2.22 2.07 2.04 2.01 2.18 2.42 2.57 2.48 2.45 2.81 3.24 3.47 3.37 2.98
2.16 2.24 2.37 2.48 2.67 2.78 2.75 2.69 2.61 2.64 2.56 2.55 2.68 2.66 2.68 2.67 2.71 2.60 2.48 2.37 2.47 2.57 2.73 2.77 2.88 3.23 3.00 2.91 2.75 2.53 2.33 2.17 2.06 2.21 2.54 2.84 2.57 2.46 2.77 3.16 3.52 3.44 3.26
2.20 2.29 2.50 2.60 2.95 3.15 3.17 3.23 3.15 3.08 2.95 3.01 3.02 3.00 2.97 2.88 2.76 2.83 2.61 2.41 2.61 2.73 2.89 3.06 3.02 3.10 3.15 3.13 3.01 2.68 2.52 2.41 2.12 2.19 2.34 2.52 2.69 2.27 2.63 3.16 3.34 3.16 3.16
2.54 2.76 3.05 3.14 3.07 3.16 3.35 3.47 3.27 3.18 3.06 2.99 2.90 2.91 2.79 2.68 2.67 2.95 2.78 2.74 2.82 3.01 2.91 2.71 3.10 3.22 3.19 3.16 2.85 2.73 2.39 2.30 2.20 2.09 2.18 2.28 2.47 2.44 2.48 2.58 2.99 2.88 3.10
2.85 3.16 3.27 3.34 3.55 3.84 4.01 3.90 3.66 3.27 2.98 2.86 2.76 2.64 2.57 2.60 2.62 2.89 2.70 2.72 2.89 3.13 3.19 3.18 3.31 3.25 3.11 3.16 2.76 2.59 2.28 2.00 1.96 1.92 1.82 2.03 2.09 1.89 2.03 2.23 2.56 2.22 2.45
2.82 2.98 3.20 3.57 3.96 4.08 3.94 3.86 3.77 3.44 3.15 2.82 2.53 2.47 2.54 2.47 2.54 2.81 2.58 2.89 2.98 3.07 3.19 3.21 3.37 3.26 3.07 3.20 3.08 2.62 2.13 1.83 1.70 1.57 1.63 1.76 1.71 1.79 2.05 2.38 2.63 2.63 2.33
2.61 2.86 3.22 3.53 3.87 3.84 3.95 4.10 4.02 3.78 3.20 2.83 2.64 2.53 2.48 2.47 2.45 2.56 2.89 2.92 3.00 3.11 3.11 3.04 3.09 2.93 2.70 3.03 3.09 2.90 2.32 1.96 1.61 1.35 1.55 1.55 1.67 1.92 1.97 1.99 2.30 2.63 2.52
2.70 3.08 3.31 3.53 3.65 3.72 3.87 3.96 3.65 3.44 2.99 2.83 2.82 2.64 2.49 2.54 2.56 2.66 2.85 2.92 2.87 2.78 2.84 2.92 2.84 2.72 2.56 2.68 2.89 2.92 2.48 2.04 1.68 1.42 1.37 1.41 1.74 1.92 1.89 1.88 1.87 2.01 2.08
2.67 3.12 3.52 3.53 3.50 3.44 3.58 3.67 3.45 3.09 2.81 2.69 2.70 2.49 2.34 2.29 2.30 2.40 2.47 2.61 2.69 2.65 2.67 2.59 2.57 2.60 2.55 2.44 2.62 2.65 2.51 2.32 2.09 1.64 1.32 1.32 1.55 1.68 1.65 1.55 1.64 1.88 1.98
2.35 2.71 3.09 3.36 3.39 3.25 3.22 3.25 3.28 3.05 2.72 2.54 2.47 2.36 2.29 2.29 2.12 2.08 2.18 2.36 2.40 2.32 2.31 2.44 2.64 2.60 2.45 2.32 2.43 2.50 2.64 2.57 2.30 1.99 1.57 1.41 1.38 1.29 1.39 1.44 1.49 1.58 1.77
2.18 2.46 2.68 2.88 2.93 2.89 2.80 2.81 2.86 2.80 2.69 2.46 2.29 2.29 2.31 2.22 2.03 1.93 1.94 2.04 2.09 2.09 2.06 2.09 2.21 2.27 2.27 2.36 2.39 2.38 2.51 2.51 2.41 2.28 1.89 1.63 1.47 1.16 1.20 1.28 1.40 1.46 1.54

GEFSSE_prec_meanprecacc_198.txt.gz
Total_Precipitation_Accumulation
0.33 0.32 0.43 0.30 0.23 0.24 0.27 0.29 0.30 0.31 0.31 0.30 0.30 0.33 0.31 0.30 0.31 0.34 0.43 0.59 0.60 0.61 0.61 0.67 0.77 0.79 0.74 0.71 0.71 0.67 0.59 0.59 0.63 0.66 0.65 0.72 0.81 1.01 1.23 1.15 1.13 0.80 0.72
0.20 0.22 0.37 0.29 0.21 0.23 0.24 0.27 0.27 0.27 0.28 0.29 0.31 0.34 0.36 0.39 0.41 0.43 0.50 0.66 0.64 0.62 0.59 0.66 0.70 0.67 0.66 0.59 0.56 0.52 0.50 0.56 0.64 0.72 0.67 0.63 0.82 1.08 1.24 1.17 1.24 0.74 0.65
0.13 0.16 0.25 0.30 0.23 0.21 0.23 0.28 0.29 0.29 0.27 0.27 0.30 0.35 0.40 0.51 0.59 0.57 0.59 0.73 0.77 0.71 0.67 0.69 0.61 0.55 0.55 0.47 0.45 0.44 0.47 0.59 0.69 0.87 0.91 0.71 0.63 1.09 1.23 1.14 0.87 0.56 0.57
0.11 0.16 0.20 0.25 0.26 0.23 0.22 0.26 0.30 0.30 0.29 0.31 0.37 0.39 0.43 0.47 0.51 0.51 0.57 0.71 0.79 0.71 0.66 0.53 0.47 0.42 0.39 0.32 0.35 0.39 0.48 0.62 0.82 1.13 1.28 0.99 0.58 0.88 1.07 0.94 0.72 0.56 0.54
0.15 0.13 0.22 0.29 0.31 0.29 0.22 0.24 0.28 0.32 0.32 0.34 0.39 0.43 0.45 0.46 0.48 0.48 0.51 0.63 0.65 0.55 0.46 0.40 0.41 0.36 0.30 0.25 0.29 0.38 0.48 0.66 0.86 1.19 1.15 1.10 0.97 0.91 0.90 0.87 0.75 0.71 0.64
0.21 0.18 0.24 0.32 0.33 0.34 0.28 0.26 0.31 0.34 0.36 0.37 0.43 0.47 0.46 0.48 0.50 0.47 0.48 0.56 0.55 0.48 0.39 0.40 0.41 0.36 0.30 0.26 0.28 0.34 0.44 0.68 0.85 0.79 0.82 0.93 0.87 0.86 0.84 0.91 0.91 0.83 0.72
0.42 0.37 0.35 0.41 0.42 0.40 0.33 0.30 0.30 0.33 0.38 0.40 0.45 0.46 0.45 0.47 0.47 0.46 0.46 0.49 0.44 0.40 0.37 0.39 0.41 0.34 0.36 0.36 0.33 0.35 0.48 0.73 0.79 0.70 0.74 1.03 0.90 0.69 0.85 1.03 1.14 1.01 0.79
0.57 0.56 0.49 0.51 0.51 0.50 0.41 0.37 0.38 0.37 0.37 0.41 0.44 0.42 0.42 0.41 0.43 0.44 0.45 0.41 0.32 0.30 0.32 0.38 0.44 0.38 0.38 0.43 0.38 0.37 0.50 0.66 0.61 0.65 0.62 0.74 0.64 0.65 0.85 1.07 1.17 1.09 0.93
0.70 0.68 0.61 0.58 0.52 0.56 0.53 0.46 0.47 0.47 0.44 0.43 0.42 0.39 0.38 0.37 0.41 0.42 0.41 0.37 0.32 0.31 0.31 0.35 0.39 0.37 0.35 0.40 0.45 0.46 0.57 0.75 0.76 0.78 0.63 0.72 0.65 0.77 0.98 1.15 1.22 1.17 1.11
1.08 0.86 0.73 0.73 0.72 0.68 0.64 0.56 0.55 0.51 0.50 0.51 0.46 0.45 0.45 0.49 0.47 0.47 0.44 0.41 0.41 0.40 0.36 0.35 0.40 0.38 0.39 0.38 0.43 0.58 0.77 0.75 0.64 0.74 0.82 0.67 0.69 0.97 1.24 1.29 1.35 1.36 1.32
1.47 1.22 1.00 0.90 0.88 0.82 0.74 0.67 0.72 0.69 0.66 0.65 0.63 0.60 0.59 0.71 0.72 0.67 0.59 0.63 0.62 0.61 0.62 0.62 0.65 0.60 0.57 0.47 0.55 0.78 0.85 0.71 0.81 0.97 0.99 0.75 0.88 1.22 1.50 1.52 1.51 1.51 1.51
1.62 1.32 1.23 1.13 1.01 0.94 0.80 0.85 1.07 0.96 0.89 0.90 0.96 0.89 0.96 1.07 1.07 0.79 0.83 1.03 1.13 1.19 1.15 1.23 1.35 1.09 0.89 0.92 1.38 1.44 0.85 0.81 1.04 1.11 1.08 0.94 1.18 1.56 1.73 1.80 1.77 1.66 1.61
1.92 1.60 1.47 1.35 1.25 1.26 1.33 1.17 1.22 1.22 1.24 1.24 1.25 1.26 1.29 1.15 1.06 1.03 1.16 1.41 1.58 1.63 1.59 1.88 1.93 1.47 1.53 1.86 1.95 1.70 1.17 1.16 1.29 1.25 1.36 1.39 1.44 1.86 2.26 2.27 2.20 1.99 1.81
2.25 1.94 1.72 1.61 1.60 1.65 1.59 1.50 1.37 1.38 1.39 1.44 1.52 1.49 1.59 1.68 1.61 1.64 1.70 1.74 1.92 2.04 2.29 2.39 2.51 2.18 2.16 2.01 1.86 1.76 1.62 1.74 1.64 1.79 2.12 1.93 1.68 1.94 2.59 2.72 2.62 2.41 2.01
2.44 2.13 2.07 1.82 1.72 1.77 1.86 1.90 1.72 1.81 1.74 1.72 1.81 1.88 1.94 2.14 2.15 2.14 2.05 2.06 1.98 2.18 2.40 2.74 2.68 2.90 2.84 2.50 2.11 1.94 1.96 2.05 1.98 2.10 2.33 2.36 2.19 2.21 2.89 3.26 3.16 2.87 2.45
2.40 2.22 2.17 2.04 2.06 2.15 2.11 2.14 2.20 2.23 2.22 2.13 2.07 2.10 2.15 2.36 2.58 2.53 2.33 2.32 2.20 2.26 2.58 2.83 2.86 3.29 3.13 2.95 2.48 2.28 2.13 2.11 2.11 2.24 2.44 2.60 2.53 2.48 2.85 3.28 3.50 3.39 2.99
2.19 2.28 2.42 2.53 2.70 2.79 2.76 2.70 2.63 2.66 2.59 2.57 2.68 2.68 2.70 2.68 2.72 2.60 2.49 2.39 2.49 2.60 2.76 2.82 2.95 3.30 3.06 2.96 2.80 2.58 2.37 2.21 2.13 2.27 2.58 2.86 2.59 2.50 2.81 3.21 3.57 3.49 3.30
2.22 2.33 2.56 2.64 2.97 3.17 3.19 3.24 3.17 3.10 2.96 3.02 3.02 3.01 2.98 2.89 2.77 2.83 2.62 2.43 2.64 2.76 2.91 3.10 3.07 3.15 3.21 3.19 3.06 2.73 2.56 2.45 2.16 2.23 2.37 2.54 2.72 2.32 2.69 3.20 3.39 3.20 3.20
2.55 2.79 3.11 3.19 3.11 3.20 3.38 3.49 3.29 3.21 3.08 3.00 2.91 2.92 2.80 2.68 2.67 2.96 2.79 2.76 2.84 3.05 2.95 2.75 3.14 3.26 3.24 3.21 2.89 2.78 2.44 2.34 2.23 2.13 2.22 2.32 2.50 2.48 2.53 2.62 3.05 2.94 3.14
2.87 3.20 3.37 3.42 3.61 3.90 4.07 3.95 3.70 3.30 3.02 2.89 2.78 2.66 2.59 2.61 2.62 2.90 2.71 2.73 2.91 3.16 3.23 3.22 3.37 3.28 3.14 3.19 2.79 2.63 2.32 2.04 2.00 1.96 1.86 2.07 2.14 1.95 2.08 2.29 2.65 2.27 2.48
2.88 3.07 3.32 3.70 4.06 4.17 4.01 3.92 3.81 3.48 3.20 2.87 2.57 2.49 2.57 2.49 2.55 2.82 2.59 2.90 2.99 3.09 3.22 3.24 3.40 3.29 3.09 3.22 3.10 2.65 2.16 1.87 1.75 1.61 1.68 1.82 1.77 1.85 2.10 2.43 2.68 2.66 2.35
2.71 2.99 3.33 3.66 3.99 3.94 4.03 4.18 4.06 3.82 3.23 2.88 2.71 2.59 2.53 2.51 2.48 2.57 2.91 2.93 3.01 3.13 3.12 3.06 3.11 2.95 2.72 3.04 3.11 2.93 2.35 2.00 1.67 1.39 1.59 1.59 1.70 1.96 2.01 2.03 2.33 2.66 2.54
2.78 3.17 3.40 3.62 3.74 3.79 3.93 4.02 3.73 3.51 3.03 2.88 2.89 2.72 2.58 2.61 2.62 2.70 2.88 2.94 2.89 2.80 2.86 2.95 2.85 2.74 2.59 2.71 2.91 2.94 2.50 2.07 1.71 1.45 1.41 1.46 1.77 1.94 1.91 1.91 1.89 2.03 2.11
2.71 3.18 3.59 3.58 3.55 3.47 3.61 3.71 3.49 3.13 2.84 2.73 2.74 2.55 2.43 2.37 2.37 2.46 2.52 2.65 2.72 2.67 2.69 2.60 2.59 2.62 2.58 2.46 2.63 2.66 2.53 2.33 2.11 1.67 1.36 1.37 1.60 1.71 1.68 1.57 1.67 1.90 2.01
2.38 2.76 3.14 3.41 3.45 3.28 3.25 3.29 3.34 3.10 2.77 2.57 2.50 2.41 2.35 2.34 2.17 2.13 2.23 2.39 2.43 2.34 2.33 2.46 2.66 2.62 2.46 2.34 2.44 2.52 2.65 2.58 2.31 2.00 1.60 1.45 1.42 1.32 1.41 1.45 1.51 1.60 1.81
2.22 2.52 2.73 2.93 2.98 2.92 2.83 2.84 2.91 2.86 2.75 2.50 2.32 2.32 2.34 2.25 2.07 1.98 1.98 2.08 2.12 2.12 2.09 2.11 2.24 2.30 2.29 2.38 2.41 2.40 2.53 2.52 2.42 2.30 1.91 1.65 1.49 1.19 1.22 1.30 1.41 1.49 1.60

GEFSSE_prec_meanprecacc_204.txt.gz
Total_Precipitation_Accumulation
0.45 0.44 0.55 0.40 0.30 0.29 0.33 0.33 0.33 0.34 0.33 0.33 0.34 0.36 0.34 0.34 0.34 0.37 0.47 0.62 0.63 0.66 0.67 0.75 0.88 0.86 0.80 0.76 0.77 0.72 0.63 0.63 0.70 0.73 0.71 0.77 0.86 1.09 1.36 1.26 1.20 0.85 0.78
0.28 0.31 0.47 0.37 0.28 0.28 0.28 0.29 0.28 0.28 0.30 0.31 0.34 0.36 0.38 0.42 0.43 0.45 0.52 0.68 0.67 0.67 0.66 0.75 0.80 0.73 0.71 0.64 0.60 0.56 0.54 0.63 0.71 0.78 0.73 0.68 0.88 1.17 1.34 1.27 1.29 0.79 0.72
0.19 0.23 0.32 0.37 0.28 0.25 0.26 0.30 0.30 0.30 0.29 0.29 0.32 0.37 0.42 0.54 0.60 0.58 0.62 0.75 0.81 0.76 0.71 0.74 0.67 0.61 0.60 0.50 0.47 0.47 0.51 0.64 0.74 0.93 0.97 0.74 0.68 1.17 1.31 1.21 0.92 0.62 0.62
0.14 0.21 0.25 0.30 0.30 0.26 0.24 0.27 0.30 0.31 0.30 0.33 0.40 0.42 0.45 0.50 0.53 0.53 0.61 0.74 0.84 0.76 0.69 0.57 0.52 0.46 0.43 0.35 0.37 0.42 0.52 0.67 0.88 1.18 1.32 1.02 0.59 0.93 1.13 0.99 0.76 0.61 0.59
0.18 0.19 0.29 0.33 0.33 0.30 0.24 0.25 0.29 0.32 0.33 0.36 0.41 0.45 0.47 0.48 0.51 0.50 0.54 0.68 0.70 0.60 0.50 0.44 0.45 0.38 0.33 0.27 0.32 0.42 0.54 0.71 0.91 1.21 1.18 1.12 0.99 0.95 0.94 0.92 0.79 0.75 0.68
0.24 0.22 0.29 0.35 0.34 0.36 0.29 0.27 0.31 0.34 0.37 0.40 0.47 0.49 0.48 0.50 0.52 0.50 0.51 0.60 0.60 0.52 0.42 0.44 0.45 0.39 0.32 0.29 0.31 0.39 0.51 0.74 0.87 0.80 0.84 0.95 0.90 0.91 0.89 0.97 0.95 0.86 0.75
0.44 0.39 0.38 0.42 0.43 0.41 0.34 0.30 0.31 0.34 0.41 0.45 0.50 0.49 0.47 0.49 0.50 0.48 0.50 0.52 0.47 0.43 0.40 0.42 0.44 0.38 0.39 0.40 0.38 0.41 0.55 0.77 0.79 0.71 0.75 1.05 0.93 0.75 0.91 1.09 1.17 1.02 0.81
0.58 0.57 0.50 0.52 0.51 0.50 0.42 0.38 0.39 0.39 0.41 0.46 0.48 0.46 0.46 0.45 0.47 0.48 0.48 0.44 0.35 0.32 0.34 0.41 0.47 0.42 0.41 0.47 0.43 0.42 0.55 0.69 0.61 0.65 0.62 0.76 0.68 0.70 0.89 1.11 1.19 1.10 0.94
0.72 0.69 0.62 0.59 0.53 0.57 0.53 0.47 0.48 0.49 0.48 0.48 0.48 0.45 0.44 0.43 0.46 0.46 0.45 0.39 0.34 0.32 0.33 0.38 0.42 0.40 0.38 0.43 0.49 0.53 0.64 0.80 0.77 0.78 0.63 0.73 0.67 0.82 1.01 1.17 1.24 1.19 1.12
1.11 0.88 0.74 0.74 0.73 0.68 0.65 0.57 0.57 0.53 0.53 0.55 0.51 0.51 0.51 0.54 0.51 0.51 0.48 0.43 0.42 0.42 0.38 0.37 0.42 0.40 0.42 0.41 0.48 0.66 0.86 0.81 0.65 0.74 0.82 0.69 0.72 1.00 1.27 1.31 1.37 1.38 1.33
1.51 1.25 1.02 0.91 0.88 0.83 0.74 0.67 0.73 0.71 0.69 0.67 0.66 0.65 0.63 0.74 0.74 0.70 0.63 0.66 0.63 0.63 0.64 0.63 0.67 0.62 0.59 0.51 0.63 0.87 0.91 0.73 0.82 0.98 1.00 0.77 0.92 1.25 1.52 1.54 1.53 1.53 1.54
1.70 1.36 1.25 1.14 1.02 0.94 0.80 0.85 1.07 0.97 0.89 0.91 0.97 0.90 0.98 1.08 1.08 0.82 0.88 1.06 1.15 1.22 1.18 1.25 1.38 1.11 0.90 0.94 1.43 1.49 0.88 0.83 1.05 1.12 1.09 0.98 1.23 1.61 1.78 1.84 1.80 1.68 1.63
1.97 1.62 1.48 1.36 1.27 1.27 1.34 1.17 1.22 1.22 1.24 1.24 1.25 1.26 1.30 1.15 1.07 1.06 1.22 1.46 1.61 1.66 1.61 1.90 1.95 1.48 1.54 1.87 1.97 1.72 1.20 1.18 1.30 1.27 1.38 1.42 1.48 1.90 2.30 2.31 2.23 2.00 1.82
2.26 1.94 1.73 1.62 1.61 1.66 1.59 1.50 1.37 1.38 1.39 1.44 1.52 1.49 1.60 1.69 1.62 1.66 1.77 1.79 1.94 2.07 2.31 2.40 2.53 2.19 2.17 2.02 1.88 1.78 1.64 1.75 1.65 1.80 2.14 1.97 1.71 1.98 2.62 2.75 2.65 2.42 2.02
2.45 2.14 2.09 1.84 1.74 1.78 1.86 1.91 1.72 1.81 1.75 1.73 1.81 1.89 1.94 2.15 2.16 2.17 2.11 2.12 2.01 2.19 2.41 2.75 2.70 2.92 2.85 2.52 2.14 1.97 1.98 2.07 2.00 2.11 2.35 2.41 2.24 2.26 2.94 3.31 3.21 2.90 2.47
2.41 2.24 2.19 2.06 2.08 2.16 2.12 2.14 2.21 2.23 2.23 2.14 2.08 2.11 2.16 2.37 2.59 2.55 2.37 2.37 2.23 2.28 2.59 2.83 2.88 3.31 3.16 3.00 2.52 2.31 2.14 2.12 2.12 2.25 2.46 2.64 2.59 2.54 2.91 3.35 3.56 3.44 3.04
2.19 2.29 2.44 2.56 2.74 2.80 2.76 2.70 2.63 2.66 2.59 2.58 2.69 2.69 2.71 2.69 2.74 2.63 2.52 2.42 2.52 2.63 2.77 2.83 2.98 3.33 3.10 3.01 2.84 2.62 2.39 2.22 2.15 2.29 2.59 2.88 2.63 2.55 2.87 3.27 3.63 3.55 3.36
2.23 2.34 2.58 2.67 3.02 3.19 3.20 3.25 3.17 3.10 2.96 3.02 3.03 3.02 2.99 2.91 2.78 2.85 2.67 2.49 2.67 2.79 2.94 3.12 3.10 3.18 3.24 3.24 3.09 2.76 2.59 2.48 2.18 2.25 2.40 2.55 2.74 2.36 2.73 3.27 3.45 3.26 3.26
2.57 2.82 3.14 3.21 3.14 3.23 3.40 3.52 3.31 3.22 3.09 3.01 2.92 2.92 2.80 2.70 2.69 2.98 2.82 2.80 2.89 3.09 3.00 2.80 3.19 3.30 3.29 3.27 2.94 2.81 2.47 2.36 2.26 2.17 2.26 2.35 2.53 2.50 2.57 2.67 3.10 2.99 3.20
2.91 3.26 3.42 3.48 3.67 3.94 4.11 4.00 3.75 3.33 3.04 2.91 2.80 2.67 2.60 2.62 2.64 2.92 2.73 2.76 2.95 3.21 3.28 3.28 3.42 3.33 3.19 3.24 2.83 2.67 2.36 2.07 2.04 2.00 1.90 2.11 2.18 1.97 2.11 2.33 2.69 2.31 2.52
2.92 3.15 3.44 3.84 4.18 4.25 4.07 3.98 3.87 3.52 3.23 2.90 2.59 2.51 2.59 2.51 2.57 2.84 2.61 2.93 3.02 3.13 3.26 3.29 3.45 3.34 3.13 3.26 3.14 2.68 2.20 1.91 1.78 1.64 1.71 1.85 1.80 1.87 2.14 2.47 2.71 2.68 2.37
2.75 3.04 3.44 3.84 4.15 4.06 4.13 4.28 4.17 3.91 3.30 2.93 2.75 2.61 2.56 2.53 2.51 2.60 2.93 2.96 3.04 3.16 3.16 3.10 3.15 3.00 2.77 3.09 3.15 2.97 2.37 2.04 1.69 1.41 1.60 1.60 1.73 1.98 2.03 2.05 2.35 2.67 2.56
2.80 3.20 3.44 3.68 3.83 3.88 4.03 4.13 3.84 3.61 3.11 2.93 2.93 2.76 2.62 2.66 2.67 2.75 2.92 2.98 2.93 2.84 2.92 3.01 2.91 2.80 2.65 2.76 2.95 2.97 2.52 2.08 1.72 1.46 1.42 1.47 1.78 1.97 1.93 1.93 1.91 2.05 2.13
2.74 3.22 3.64 3.63 3.63 3.56 3.70 3.78 3.55 3.18 2.88 2.75 2.77 2.58 2.47 2.42 2.45 2.53 2.58 2.70 2.76 2.72 2.74 2.65 2.64 2.67 2.63 2.49 2.67 2.69 2.55 2.34 2.12 1.67 1.37 1.37 1.60 1.73 1.70 1.59 1.69 1.92 2.02
2.45 2.82 3.21 3.50 3.54 3.38 3.34 3.36 3.39 3.15 2.83 2.61 2.54 2.44 2.37 2.38 2.23 2.20 2.29 2.45 2.48 2.38 2.36 2.50 2.70 2.67 2.51 2.37 2.48 2.54 2.67 2.59 2.31 2.01 1.60 1.46 1.43 1.33 1.43 1.47 1.52 1.61 1.82
2.29 2.60 2.83 3.05 3.08 3.01 2.92 2.92 2.96 2.92 2.81 2.55 2.34 2.34 2.36 2.28 2.11 2.03 2.04 2.12 2.16 2.15 2.11 2.15 2.28 2.35 2.33 2.42 2.44 2.41 2.54 2.53 2.43 2.31 1.91 1.65 1.50 1.19 1.23 1.30 1.42 1.50 1.61

GEFSSE_prec_meanprecacc_210.txt.gz
Total_Precipitation_Accumulation
0.61 0.63 0.72 0.53 0.41 0.37 0.39 0.39 0.39 0.39 0.38 0.37 0.38 0.40 0.38 0.38 0.37 0.42 0.52 0.68 0.69 0.73 0.78 0.89 0.95 0.91 0.84 0.81 0.81 0.75 0.66 0.66 0.74 0.77 0.75 0.83 0.94 1.17 1.45 1.34 1.27 0.92 0.83
0.43 0.44 0.58 0.46 0.33 0.33 0.32 0.33 0.32 0.33 0.35 0.35 0.37 0.39 0.42 0.46 0.47 0.51 0.58 0.74 0.74 0.76 0.78 0.86 0.88 0.78 0.76 0.69 0.64 0.59 0.57 0.67 0.77 0.84 0.78 0.73 0.94 1.25 1.42 1.34 1.36 0.84 0.77
0.29 0.31 0.38 0.43 0.33 0.28 0.29 0.33 0.33 0.35 0.34 0.33 0.35 0.40 0.45 0.58 0.63 0.63 0.69 0.83 0.88 0.84 0.78 0.81 0.73 0.65 0.64 0.54 0.51 0.51 0.56 0.69 0.80 1.00 1.04 0.79 0.72 1.24 1.39 1.28 0.98 0.65 0.66
0.19 0.26 0.29 0.35 0.34 0.29 0.27 0.31 0.33 0.35 0.35 0.37 0.42 0.44 0.49 0.54 0.57 0.57 0.66 0.80 0.88 0.80 0.73 0.62 0.56 0.50 0.46 0.38 0.40 0.46 0.56 0.71 0.93 1.23 1.38 1.07 0.63 0.99 1.21 1.06 0.82 0.66 0.64
0.22 0.23 0.33 0.38 0.37 0.33 0.26 0.28 0.31 0.36 0.37 0.39 0.44 0.48 0.51 0.53 0.55 0.54 0.58 0.71 0.73 0.62 0.54 0.50 0.50 0.41 0.36 0.30 0.34 0.45 0.57 0.74 0.94 1.25 1.23 1.18 1.04 1.01 1.02 0.98 0.84 0.81 0.74
0.29 0.27 0.34 0.39 0.37 0.38 0.32 0.29 0.33 0.36 0.40 0.42 0.50 0.52 0.52 0.56 0.58 0.54 0.54 0.63 0.62 0.55 0.46 0.48 0.49 0.42 0.35 0.31 0.34 0.42 0.54 0.77 0.90 0.82 0.88 1.00 0.94 0.97 0.96 1.04 1.00 0.91 0.79
0.49 0.44 0.44 0.47 0.46 0.43 0.36 0.32 0.32 0.36 0.43 0.48 0.53 0.52 0.51 0.54 0.55 0.52 0.53 0.54 0.49 0.46 0.44 0.46 0.48 0.41 0.43 0.44 0.42 0.44 0.59 0.81 0.81 0.73 0.77 1.10 0.98 0.80 0.97 1.16 1.22 1.07 0.84
0.61 0.61 0.56 0.57 0.55 0.53 0.44 0.40 0.41 0.41 0.43 0.49 0.51 0.49 0.49 0.49 0.51 0.51 0.51 0.46 0.37 0.34 0.38 0.46 0.51 0.45 0.45 0.52 0.48 0.48 0.60 0.74 0.63 0.66 0.64 0.79 0.71 0.74 0.94 1.16 1.24 1.15 0.97
0.75 0.71 0.65 0.62 0.56 0.59 0.56 0.50 0.51 0.51 0.50 0.51 0.51 0.48 0.47 0.47 0.49 0.49 0.48 0.43 0.38 0.35 0.36 0.41 0.46 0.45 0.43 0.47 0.53 0.58 0.69 0.85 0.80 0.80 0.64 0.75 0.71 0.86 1.06 1.21 1.28 1.23 1.17
1.14 0.91 0.77 0.77 0.76 0.70 0.67 0.60 0.60 0.57 0.56 0.58 0.54 0.55 0.56 0.58 0.55 0.54 0.51 0.47 0.46 0.45 0.41 0.41 0.46 0.44 0.46 0.46 0.53 0.71 0.93 0.87 0.69 0.77 0.84 0.71 0.75 1.03 1.31 1.34 1.41 1.42 1.38
1.53 1.28 1.05 0.93 0.90 0.85 0.76 0.69 0.77 0.78 0.77 0.76 0.74 0.72 0.70 0.79 0.78 0.74 0.66 0.70 0.67 0.66 0.68 0.67 0.71 0.66 0.64 0.56 0.68 0.93 0.98 0.80 0.85 1.00 1.02 0.80 0.95 1.28 1.56 1.59 1.56 1.57 1.58
1.71 1.39 1.27 1.16 1.04 0.96 0.81 0.88 1.13 1.04 0.97 1.00 1.06 0.98 1.04 1.12 1.12 0.85 0.91 1.10 1.19 1.25 1.22 1.29 1.41 1.14 0.94 1.00 1.50 1.55 0.94 0.87 1.07 1.13 1.11 1.01 1.27 1.66 1.84 1.90 1.84 1.71 1.67
1.97 1.62 1.49 1.37 1.28 1.29 1.35 1.20 1.26 1.28 1.28 1.28 1.29 1.30 1.34 1.17 1.09 1.08 1.25 1.49 1.64 1.68 1.64 1.93 1.98 1.51 1.58 1.94 2.05 1.79 1.24 1.21 1.33 1.28 1.41 1.47 1.52 1.93 2.34 2.36 2.27 2.04 1.86
2.26 1.95 1.74 1.63 1.62 1.67 1.61 1.52 1.39 1.41 1.41 1.46 1.54 1.51 1.61 1.71 1.64 1.68 1.80 1.83 1.97 2.10 2.34 2.43 2.57 2.23 2.21 2.07 1.93 1.84 1.67 1.78 1.68 1.84 2.18 2.01 1.75 2.01 2.66 2.79 2.69 2.46 2.05
2.45 2.15 2.09 1.85 1.75 1.79 1.87 1.91 1.73 1.82 1.76 1.74 1.83 1.91 1.96 2.17 2.18 2.20 2.17 2.17 2.03 2.22 2.43 2.79 2.75 2.97 2.92 2.58 2.18 2.01 2.01 2.09 2.03 2.15 2.40 2.46 2.29 2.32 3.00 3.36 3.26 2.95 2.51
2.41 2.25 2.20 2.07 2.10 2.17 2.12 2.15 2.21 2.24 2.24 2.15 2.10 2.13 2.19 2.40 2.63 2.62 2.53 2.49 2.29 2.30 2.61 2.87 2.94 3.39 3.24 3.08 2.59 2.36 2.17 2.14 2.15 2.29 2.50 2.71 2.66 2.61 2.97 3.41 3.62 3.52 3.13
2.20 2.30 2.45 2.58 2.77 2.82 2.77 2.71 2.64 2.66 2.60 2.60 2.71 2.70 2.74 2.72 2.78 2.69 2.70 2.59 2.61 2.67 2.81 2.87 3.03 3.41 3.18 3.09 2.92 2.67 2.42 2.26 2.18 2.32 2.64 2.96 2.70 2.62 2.92 3.33 3.69 3.63 3.44
2.24 2.35 2.59 2.68 3.04 3.20 3.22 3.26 3.18 3.11 2.97 3.04 3.04 3.04 3.03 2.95 2.82 2.90 2.74 2.57 2.74 2.83 2.98 3.18 3.17 3.27 3.35 3.35 3.18 2.82 2.64 2.54 2.23 2.30 2.45 2.62 2.82 2.43 2.80 3.33 3.53 3.33 3.32
2.58 2.84 3.17 3.22 3.16 3.25 3.43 3.54 3.33 3.25 3.12 3.03 2.94 2.96 2.85 2.74 2.74 3.05 2.89 2.91 2.97 3.15 3.06 2.85 3.26 3.39 3.39 3.39 3.01 2.88 2.51 2.43 2.33 2.23 2.33 2.41 2.60 2.57 2.64 2.72 3.14 3.03 3.24
2.92 3.28 3.45 3.52 3.70 3.96 4.13 4.02 3.77 3.36 3.07 2.94 2.84 2.73 2.65 2.69 2.71 2.99 2.80 2.85 3.06 3.32 3.38 3.36 3.52 3.42 3.28 3.34 2.89 2.73 2.41 2.13 2.09 2.07 1.95 2.15 2.23 2.03 2.17 2.36 2.74 2.35 2.55
2.93 3.17 3.46 3.88 4.22 4.29 4.10 4.00 3.90 3.55 3.27 2.94 2.63 2.55 2.64 2.56 2.64 2.93 2.68 3.02 3.12 3.25 3.40 3.40 3.55 3.43 3.22 3.34 3.23 2.76 2.26 1.96 1.84 1.70 1.75 1.89 1.84 1.90 2.17 2.52 2.78 2.73 2.41
2.76 3.05 3.46 3.88 4.20 4.10 4.16 4.32 4.22 3.97 3.35 2.99 2.81 2.68 2.62 2.59 2.59 2.67 3.03 3.05 3.14 3.29 3.32 3.22 3.26 3.11 2.88 3.18 3.27 3.08 2.46 2.13 1.77 1.45 1.64 1.64 1.77 2.02 2.07 2.10 2.40 2.72 2.60
2.81 3.21 3.46 3.73 3.88 3.92 4.07 4.18 3.90 3.68 3.18 2.99 2.99 2.83 2.69 2.73 2.73 2.81 3.00 3.08 3.06 2.95 3.05 3.18 3.05 2.94 2.80 2.88 3.06 3.10 2.62 2.17 1.79 1.51 1.45 1.49 1.82 2.02 1.99 1.97 1.93 2.09 2.17
2.75 3.25 3.66 3.67 3.69 3.62 3.75 3.83 3.63 3.28 2.99 2.86 2.86 2.64 2.53 2.48 2.50 2.60 2.66 2.80 2.89 2.83 2.87 2.79 2.78 2.82 2.81 2.64 2.78 2.78 2.64 2.43 2.20 1.74 1.40 1.39 1.62 1.76 1.75 1.63 1.72 1.96 2.07
2.46 2.85 3.24 3.52 3.58 3.44 3.40 3.41 3.48 3.25 2.94 2.73 2.63 2.50 2.44 2.43 2.27 2.25 2.35 2.52 2.56 2.47 2.45 2.60 2.82 2.78 2.65 2.51 2.58 2.63 2.74 2.67 2.38 2.07 1.65 1.50 1.45 1.34 1.45 1.50 1.55 1.64 1.86
2.30 2.62 2.85 3.08 3.12 3.06 2.97 2.97 3.03 3.00 2.92 2.65 2.44 2.41 2.41 2.32 2.15 2.07 2.09 2.19 2.23 2.22 2.19 2.24 2.38 2.43 2.41 2.52 2.53 2.48 2.61 2.60 2.49 2.36 1.95 1.69 1.53 1.22 1.24 1.33 1.45 1.53 1.64

GEFSSE_prec_meanprecacc_216.txt.gz
Total_Precipitation_Accumulation
0.75 0.71 0.79 0.61 0.48 0.42 0.45 0.45 0.45 0.43 0.41 0.41 0.42 0.44 0.42 0.42 0.42 0.46 0.56 0.72 0.75 0.79 0.86 0.99 1.06 1.01 0.94 0.89 0.88 0.80 0.70 0.70 0.78 0.80 0.78 0.87 0.98 1.22 1.51 1.43 1.40 0.98 0.86
0.55 0.51 0.65 0.54 0.38 0.38 0.38 0.40 0.37 0.37 0.39 0.40 0.41 0.43 0.45 0.50 0.52 0.56 0.63 0.80 0.81 0.87 0.92 1.00 0.99 0.86 0.84 0.77 0.70 0.64 0.61 0.70 0.81 0.88 0.83 0.78 0.98 1.30 1.49 1.44 1.50 0.91 0.80
0.37 0.38 0.43 0.49 0.39 0.33 0.34 0.37 0.38 0.41 0.40 0.38 0.39 0.43 0.48 0.62 0.70 0.71 0.78 0.96 1.04 1.02 0.95 0.94 0.80 0.70 0.70 0.60 0.56 0.55 0.59 0.73 0.86 1.08 1.16 0.87 0.75 1.27 1.45 1.35 1.04 0.69 0.70
0.27 0.32 0.33 0.39 0.40 0.35 0.33 0.35 0.37 0.39 0.39 0.41 0.47 0.50 0.52 0.59 0.64 0.69 0.81 0.97 1.04 0.95 0.83 0.69 0.61 0.54 0.51 0.42 0.43 0.48 0.59 0.76 1.02 1.41 1.55 1.15 0.66 1.03 1.28 1.12 0.86 0.69 0.67
0.27 0.28 0.37 0.41 0.41 0.37 0.31 0.34 0.36 0.39 0.41 0.43 0.49 0.52 0.54 0.57 0.60 0.61 0.65 0.79 0.80 0.69 0.59 0.54 0.53 0.44 0.38 0.32 0.36 0.47 0.60 0.78 1.04 1.41 1.35 1.28 1.09 1.06 1.08 1.02 0.88 0.84 0.78
0.33 0.31 0.37 0.42 0.40 0.41 0.36 0.33 0.37 0.39 0.44 0.47 0.55 0.57 0.55 0.61 0.63 0.60 0.59 0.67 0.66 0.59 0.50 0.53 0.53 0.44 0.36 0.33 0.36 0.43 0.56 0.83 1.02 0.92 0.95 1.09 0.98 1.00 1.00 1.07 1.03 0.94 0.83
0.53 0.48 0.47 0.50 0.49 0.46 0.38 0.34 0.35 0.39 0.47 0.51 0.57 0.58 0.56 0.59 0.60 0.57 0.57 0.57 0.52 0.49 0.47 0.50 0.51 0.43 0.44 0.45 0.43 0.45 0.62 0.87 0.91 0.79 0.83 1.16 1.00 0.82 1.00 1.19 1.25 1.09 0.87
0.63 0.63 0.59 0.60 0.58 0.55 0.46 0.42 0.43 0.44 0.47 0.51 0.54 0.53 0.54 0.56 0.56 0.55 0.54 0.49 0.40 0.37 0.41 0.49 0.53 0.47 0.47 0.53 0.48 0.49 0.62 0.78 0.68 0.70 0.71 0.82 0.73 0.77 0.97 1.19 1.27 1.17 0.98
0.78 0.74 0.68 0.66 0.59 0.60 0.58 0.53 0.54 0.55 0.54 0.53 0.54 0.53 0.53 0.54 0.55 0.53 0.51 0.45 0.40 0.38 0.39 0.45 0.48 0.46 0.44 0.49 0.54 0.59 0.71 0.88 0.84 0.83 0.68 0.77 0.72 0.87 1.07 1.24 1.32 1.26 1.19
1.17 0.95 0.81 0.82 0.80 0.72 0.69 0.63 0.64 0.61 0.59 0.61 0.58 0.60 0.62 0.63 0.59 0.58 0.54 0.51 0.50 0.49 0.45 0.44 0.48 0.46 0.48 0.47 0.54 0.72 0.95 0.91 0.73 0.82 0.87 0.72 0.76 1.05 1.33 1.36 1.43 1.45 1.41
1.55 1.31 1.08 0.97 0.94 0.88 0.78 0.71 0.82 0.83 0.81 0.80 0.80 0.80 0.79 0.88 0.83 0.78 0.68 0.72 0.70 0.70 0.71 0.69 0.73 0.68 0.65 0.58 0.70 0.96 1.02 0.85 0.88 1.04 1.04 0.81 0.96 1.29 1.56 1.59 1.58 1.59 1.60
1.74 1.42 1.33 1.20 1.08 1.01 0.84 0.90 1.21 1.12 1.05 1.11 1.17 1.06 1.17 1.24 1.20 0.89 0.92 1.12 1.22 1.28 1.23 1.31 1.44 1.18 1.00 1.05 1.52 1.59 1.01 0.93 1.11 1.16 1.13 1.02 1.28 1.67 1.85 1.91 1.87 1.73 1.68
2.01 1.65 1.53 1.41 1.32 1.34 1.42 1.25 1.35 1.41 1.43 1.42 1.40 1.39 1.43 1.24 1.13 1.11 1.27 1.51 1.66 1.71 1.68 1.96 2.04 1.60 1.67 2.00 2.10 1.85 1.31 1.26 1.39 1.30 1.43 1.48 1.53 1.95 2.35 2.37 2.30 2.06 1.88
2.29 1.97 1.77 1.66 1.66 1.71 1.66 1.58 1.46 1.49 1.48 1.53 1.60 1.57 1.67 1.78 1.71 1.75 1.87 1.87 2.01 2.15 2.42 2.49 2.64 2.28 2.26 2.11 1.96 1.88 1.72 1.80 1.71 1.88 2.22 2.02 1.76 2.02 2.67 2.80 2.71 2.47 2.07
2.46 2.16 2.11 1.87 1.77 1.83 1.93 1.97 1.77 1.86 1.80 1.78 1.89 1.96 2.00 2.20 2.24 2.27 2.24 2.23 2.07 2.24 2.47 2.84 2.80 3.01 2.97 2.64 2.23 2.06 2.06 2.12 2.05 2.18 2.44 2.47 2.29 2.33 3.01 3.38 3.27 2.97 2.54
2.42 2.26 2.21 2.09 2.11 2.19 2.16 2.19 2.25 2.27 2.28 2.19 2.13 2.15 2.21 2.43 2.67 2.68 2.58 2.54 2.32 2.33 2.65 2.91 2.97 3.43 3.28 3.14 2.63 2.39 2.22 2.19 2.19 2.32 2.54 2.74 2.68 2.62 2.99 3.43 3.64 3.55 3.18
2.21 2.31 2.46 2.59 2.77 2.82 2.78 2.72 2.66 2.69 2.63 2.63 2.75 2.73 2.76 2.74 2.81 2.73 2.74 2.63 2.64 2.69 2.84 2.90 3.06 3.45 3.22 3.14 2.97 2.71 2.48 2.32 2.21 2.36 2.69 3.02 2.75 2.66 2.95 3.35 3.71 3.66 3.48
2.24 2.36 2.59 2.69 3.04 3.21 3.23 3.28 3.21 3.13 3.00 3.07 3.08 3.09 3.05 2.98 2.86 2.94 2.77 2.62 2.79 2.87 3.02 3.22 3.21 3.31 3.40 3.40 3.24 2.88 2.70 2.61 2.26 2.34 2.51 2.70 2.91 2.49 2.83 3.36 3.56 3.36 3.35
2.60 2.85 3.17 3.23 3.17 3.26 3.45 3.57 3.36 3.28 3.15 3.05 2.97 3.01 2.89 2.76 2.77 3.10 2.95 2.97 3.06 3.24 3.12 2.90 3.33 3.44 3.45 3.44 3.04 2.93 2.55 2.49 2.38 2.30 2.41 2.48 2.70 2.66 2.70 2.75 3.16 3.04 3.25
2.94 3.29 3.45 3.52 3.71 3.99 4.17 4.06 3.82 3.40 3.10 2.97 2.88 2.78 2.69 2.74 2.75 3.06 2.86 2.90 3.12 3.43 3.49 3.44 3.59 3.48 3.34 3.40 2.92 2.78 2.45 2.17 2.15 2.12 1.99 2.21 2.32 2.09 2.23 2.42 2.79 2.38 2.57
2.95 3.18 3.46 3.88 4.23 4.31 4.12 4.03 3.94 3.62 3.32 2.99 2.68 2.59 2.69 2.61 2.71 3.01 2.78 3.11 3.19 3.35 3.51 3.49 3.63 3.52 3.30 3.40 3.30 2.84 2.32 2.00 1.89 1.75 1.79 1.94 1.88 1.93 2.22 2.58 2.84 2.79 2.43
2.77 3.06 3.47 3.89 4.22 4.12 4.19 4.37 4.30 4.06 3.41 3.04 2.85 2.74 2.66 2.63 2.64 2.73 3.12 3.12 3.22 3.39 3.42 3.32 3.36 3.20 2.96 3.23 3.36 3.21 2.60 2.25 1.86 1.50 1.68 1.68 1.80 2.05 2.10 2.13 2.46 2.79 2.66
2.81 3.22 3.48 3.75 3.91 3.95 4.11 4.24 3.97 3.75 3.25 3.06 3.07 2.89 2.74 2.77 2.77 2.88 3.08 3.16 3.15 3.03 3.16 3.30 3.13 3.03 2.91 2.96 3.14 3.21 2.78 2.33 1.91 1.59 1.49 1.52 1.85 2.06 2.01 1.99 1.95 2.13 2.23
2.75 3.25 3.67 3.69 3.72 3.66 3.80 3.88 3.68 3.33 3.06 2.96 2.96 2.72 2.62 2.56 2.56 2.66 2.73 2.89 2.96 2.89 2.97 2.88 2.88 2.94 2.93 2.75 2.87 2.86 2.72 2.53 2.33 1.88 1.50 1.45 1.66 1.79 1.78 1.65 1.74 1.99 2.11
2.46 2.85 3.24 3.54 3.61 3.48 3.45 3.47 3.56 3.35 3.05 2.84 2.74 2.61 2.54 2.53 2.35 2.30 2.43 2.61 2.64 2.54 2.52 2.68 2.93 2.88 2.75 2.61 2.67 2.72 2.84 2.77 2.48 2.17 1.76 1.60 1.52 1.40 1.50 1.53 1.59 1.68 1.90
2.31 2.63 2.86 3.09 3.14 3.10 3.01 3.02 3.11 3.12 3.05 2.77 2.55 2.52 2.51 2.41 2.24 2.14 2.15 2.27 2.32 2.31 2.28 2.32 2.45 2.51 2.51 2.61 2.63 2.57 2.70 2.67 2.55 2.42 2.02 1.75 1.60 1.27 1.29 1.36 1.48 1.56 1.67

GEFSSE_prec_meanprecacc_222.txt.gz
Total_Precipitation_Accumulation
0.83 0.80 0.89 0.66 0.52 0.46 0.50 0.49 0.49 0.47 0.45 0.44 0.44 0.46 0.45 0.45 0.46 0.50 0.58 0.75 0.78 0.84 0.93 1.08 1.14 1.09 1.01 0.98 0.97 0.87 0.78 0.79 0.87 0.88 0.84 0.94 1.05 1.29 1.59 1.49 1.43 1.00 0.89
0.61 0.60 0.73 0.59 0.43 0.42 0.41 0.42 0.40 0.40 0.42 0.41 0.43 0.44 0.47 0.53 0.55 0.59 0.66 0.83 0.85 0.92 0.99 1.09 1.08 0.95 0.95 0.87 0.78 0.71 0.68 0.79 0.89 0.94 0.88 0.82 1.04 1.37 1.56 1.50 1.54 0.93 0.83
0.44 0.45 0.48 0.54 0.44 0.36 0.36 0.40 0.41 0.44 0.43 0.40 0.41 0.45 0.50 0.66 0.74 0.76 0.82 1.01 1.11 1.12 1.07 1.06 0.90 0.78 0.78 0.67 0.63 0.63 0.67 0.80 0.93 1.14 1.20 0.89 0.79 1.33 1.49 1.39 1.08 0.72 0.71
0.35 0.38 0.37 0.43 0.44 0.37 0.34 0.37 0.39 0.42 0.42 0.43 0.49 0.52 0.55 0.64 0.75 0.86 0.97 1.11 1.19 1.10 0.97 0.79 0.68 0.59 0.55 0.48 0.50 0.55 0.66 0.84 1.10 1.46 1.57 1.16 0.68 1.07 1.31 1.15 0.89 0.71 0.69
0.34 0.33 0.43 0.45 0.43 0.39 0.33 0.36 0.38 0.42 0.43 0.46 0.51 0.55 0.57 0.62 0.71 0.83 0.90 1.00 0.96 0.79 0.65 0.58 0.57 0.47 0.41 0.37 0.42 0.53 0.66 0.88 1.14 1.46 1.37 1.29 1.10 1.09 1.11 1.05 0.91 0.87 0.80
0.40 0.36 0.41 0.45 0.42 0.43 0.38 0.34 0.39 0.42 0.47 0.51 0.57 0.60 0.58 0.64 0.66 0.66 0.69 0.78 0.73 0.64 0.53 0.55 0.55 0.45 0.38 0.35 0.39 0.48 0.64 0.92 1.08 0.94 0.96 1.10 0.99 1.03 1.03 1.10 1.05 0.96 0.85
0.60 0.54 0.51 0.53 0.51 0.47 0.39 0.35 0.37 0.42 0.50 0.55 0.60 0.62 0.59 0.62 0.62 0.60 0.61 0.61 0.55 0.51 0.49 0.51 0.52 0.44 0.45 0.47 0.45 0.49 0.68 0.96 0.94 0.80 0.85 1.17 1.01 0.84 1.02 1.22 1.27 1.11 0.89
0.67 0.66 0.62 0.63 0.60 0.58 0.47 0.43 0.45 0.47 0.51 0.56 0.59 0.58 0.59 0.61 0.58 0.56 0.56 0.51 0.41 0.38 0.43 0.50 0.54 0.48 0.47 0.54 0.50 0.53 0.68 0.85 0.71 0.73 0.73 0.83 0.74 0.78 0.98 1.19 1.28 1.18 0.99
0.82 0.76 0.70 0.67 0.60 0.62 0.59 0.54 0.57 0.59 0.59 0.59 0.60 0.57 0.57 0.57 0.58 0.54 0.53 0.46 0.41 0.39 0.41 0.46 0.50 0.47 0.45 0.50 0.57 0.64 0.78 0.97 0.88 0.87 0.70 0.78 0.72 0.88 1.08 1.24 1.32 1.26 1.20
1.20 0.97 0.82 0.83 0.81 0.72 0.69 0.65 0.67 0.66 0.64 0.66 0.62 0.65 0.66 0.66 0.61 0.59 0.56 0.52 0.51 0.50 0.46 0.45 0.50 0.48 0.50 0.50 0.58 0.78 1.03 0.97 0.77 0.85 0.89 0.73 0.77 1.06 1.34 1.36 1.43 1.46 1.43
1.58 1.33 1.09 0.97 0.94 0.88 0.78 0.72 0.85 0.86 0.84 0.84 0.84 0.85 0.82 0.89 0.84 0.79 0.69 0.73 0.72 0.72 0.73 0.72 0.76 0.70 0.68 0.62 0.75 1.02 1.08 0.90 0.92 1.07 1.07 0.82 0.97 1.30 1.57 1.60 1.58 1.59 1.60
1.77 1.46 1.35 1.21 1.09 1.01 0.85 0.91 1.23 1.14 1.08 1.15 1.20 1.08 1.18 1.25 1.21 0.90 0.94 1.14 1.24 1.30 1.25 1.34 1.47 1.21 1.04 1.09 1.57 1.66 1.12 1.04 1.17 1.21 1.17 1.05 1.30 1.68 1.85 1.92 1.88 1.73 1.68
2.04 1.69 1.57 1.44 1.34 1.34 1.43 1.26 1.37 1.45 1.46 1.45 1.44 1.42 1.45 1.26 1.15 1.12 1.29 1.53 1.69 1.74 1.71 1.99 2.06 1.62 1.72 2.06 2.15 1.93 1.42 1.36 1.48 1.39 1.50 1.51 1.55 1.97 2.36 2.38 2.31 2.06 1.88
2.31 2.02 1.81 1.67 1.67 1.72 1.67 1.61 1.50 1.53 1.50 1.55 1.63 1.60 1.71 1.81 1.76 1.79 1.89 1.89 2.03 2.16 2.44 2.51 2.67 2.32 2.30 2.18 2.03 1.96 1.83 1.89 1.78 1.93 2.29 2.05 1.78 2.04 2.68 2.81 2.72 2.48 2.08
2.47 2.18 2.13 1.88 1.78 1.84 1.94 1.99 1.78 1.89 1.82 1.79 1.92 2.00 2.03 2.23 2.26 2.29 2.26 2.26 2.10 2.26 2.48 2.86 2.83 3.05 3.01 2.69 2.27 2.12 2.14 2.20 2.12 2.23 2.48 2.51 2.32 2.35 3.03 3.40 3.29 2.99 2.55
2.43 2.26 2.22 2.09 2.12 2.20 2.17 2.20 2.26 2.28 2.30 2.20 2.15 2.18 2.24 2.44 2.68 2.68 2.59 2.56 2.35 2.35 2.67 2.93 3.00 3.46 3.33 3.18 2.68 2.44 2.29 2.26 2.25 2.38 2.61 2.79 2.71 2.65 3.02 3.47 3.68 3.58 3.20
2.22 2.31 2.46 2.59 2.77 2.83 2.79 2.73 2.66 2.70 2.65 2.65 2.76 2.76 2.78 2.76 2.83 2.74 2.75 2.64 2.65 2.71 2.87 2.94 3.10 3.48 3.27 3.19 3.02 2.75 2.53 2.38 2.29 2.45 2.78 3.09 2.81 2.69 2.98 3.40 3.77 3.71 3.51
2.25 2.36 2.59 2.69 3.04 3.21 3.23 3.29 3.21 3.14 3.02 3.09 3.11 3.14 3.10 3.02 2.89 2.96 2.79 2.63 2.80 2.89 3.05 3.26 3.25 3.35 3.44 3.43 3.27 2.93 2.76 2.66 2.32 2.40 2.57 2.74 2.95 2.55 2.88 3.40 3.63 3.41 3.38
2.61 2.86 3.18 3.23 3.17 3.26 3.45 3.58 3.37 3.29 3.16 3.08 3.02 3.09 3.00 2.86 2.83 3.15 2.99 3.00 3.09 3.27 3.17 2.94 3.38 3.50 3.49 3.46 3.07 2.98 2.62 2.57 2.47 2.36 2.47 2.52 2.74 2.71 2.74 2.79 3.21 3.07 3.28
2.96 3.30 3.46 3.53 3.72 3.99 4.17 4.08 3.83 3.41 3.11 2.99 2.94 2.89 2.86 2.88 2.83 3.13 2.92 2.94 3.16 3.47 3.54 3.48 3.64 3.51 3.37 3.44 2.97 2.83 2.51 2.27 2.25 2.20 2.04 2.26 2.36 2.12 2.27 2.46 2.81 2.39 2.59
2.97 3.20 3.48 3.90 4.25 4.32 4.13 4.05 3.95 3.63 3.34 3.01 2.72 2.66 2.79 2.72 2.79 3.08 2.81 3.14 3.21 3.37 3.55 3.55 3.70 3.56 3.34 3.44 3.36 2.90 2.38 2.09 2.00 1.83 1.85 2.00 1.94 1.98 2.27 2.62 2.86 2.80 2.45
2.79 3.08 3.49 3.91 4.24 4.14 4.21 4.39 4.31 4.09 3.44 3.07 2.88 2.78 2.72 2.67 2.68 2.76 3.15 3.14 3.24 3.41 3.44 3.38 3.44 3.28 3.01 3.28 3.41 3.27 2.64 2.30 1.93 1.58 1.76 1.74 1.86 2.11 2.15 2.16 2.48 2.81 2.67
2.84 3.23 3.49 3.77 3.92 3.97 4.14 4.27 4.00 3.78 3.29 3.12 3.12 2.93 2.79 2.81 2.82 2.92 3.12 3.20 3.19 3.07 3.19 3.34 3.17 3.08 2.96 3.02 3.19 3.26 2.81 2.37 1.95 1.66 1.56 1.58 1.91 2.12 2.07 2.03 1.98 2.16 2.26
2.81 3.32 3.71 3.71 3.74 3.68 3.83 3.92 3.74 3.37 3.09 2.98 2.98 2.75 2.66 2.61 2.61 2.71 2.79 2.95 3.01 2.94 3.00 2.91 2.91 2.97 2.96 2.79 2.92 2.90 2.75 2.56 2.38 1.92 1.55 1.51 1.72 1.85 1.85 1.71 1.78 2.03 2.15
2.53 2.91 3.30 3.59 3.66 3.51 3.47 3.50 3.60 3.39 3.09 2.88 2.78 2.66 2.60 2.59 2.40 2.35 2.49 2.66 2.70 2.62 2.57 2.75 2.99 2.94 2.80 2.67 2.72 2.76 2.88 2.79 2.51 2.20 1.79 1.65 1.58 1.45 1.55 1.60 1.67 1.74 1.96
2.36 2.69 2.93 3.18 3.20 3.13 3.05 3.06 3.15 3.17 3.11 2.84 2.62 2.59 2.58 2.47 2.30 2.19 2.20 2.34 2.43 2.42 2.40 2.46 2.55 2.59 2.58 2.68 2.69 2.63 2.75 2.71 2.59 2.46 2.05 1.77 1.62 1.30 1.32 1.40 1.53 1.61 1.72

GEFSSE_prec_meanprecacc_228.txt.gz
Total_Precipitation_Accumulation
0.95 0.96 1.06 0.74 0.58 0.53 0.58 0.57 0.53 0.51 0.48 0.46 0.47 0.51 0.51 0.55 0.54 0.56 0.63 0.80 0.84 0.89 1.01 1.19 1.25 1.18 1.11 1.06 1.04 0.94 0.84 0.85 0.94 0.96 0.91 1.01 1.12 1.39 1.72 1.59 1.48 1.04 0.96
0.71 0.72 0.87 0.67 0.50 0.49 0.46 0.46 0.44 0.44 0.45 0.43 0.45 0.47 0.52 0.62 0.64 0.65 0.71 0.88 0.92 1.00 1.08 1.19 1.18 1.04 1.05 0.96 0.86 0.78 0.75 0.85 0.97 1.03 0.96 0.91 1.15 1.49 1.71 1.60 1.60 0.98 0.90
0.53 0.54 0.57 0.62 0.50 0.41 0.40 0.44 0.45 0.48 0.45 0.42 0.42 0.48 0.55 0.72 0.81 0.81 0.87 1.07 1.19 1.21 1.16 1.16 1.00 0.87 0.86 0.77 0.73 0.70 0.75 0.88 1.02 1.25 1.30 0.96 0.88 1.44 1.59 1.48 1.16 0.79 0.77
0.43 0.44 0.42 0.49 0.47 0.39 0.38 0.42 0.43 0.45 0.45 0.45 0.50 0.54 0.58 0.70 0.83 0.92 1.02 1.17 1.27 1.19 1.08 0.91 0.79 0.69 0.65 0.58 0.59 0.64 0.75 0.94 1.21 1.55 1.61 1.18 0.71 1.12 1.37 1.22 0.96 0.78 0.74
0.41 0.39 0.48 0.51 0.47 0.41 0.36 0.42 0.43 0.46 0.47 0.49 0.53 0.57 0.59 0.68 0.82 0.94 0.99 1.09 1.07 0.93 0.81 0.74 0.68 0.57 0.51 0.45 0.50 0.61 0.76 0.97 1.20 1.49 1.39 1.31 1.13 1.14 1.15 1.11 0.97 0.94 0.86
0.47 0.42 0.47 0.50 0.46 0.46 0.40 0.37 0.42 0.45 0.50 0.54 0.60 0.62 0.61 0.72 0.82 0.85 0.88 0.94 0.90 0.82 0.71 0.69 0.63 0.53 0.44 0.42 0.48 0.58 0.73 0.99 1.11 0.95 0.97 1.11 1.00 1.07 1.06 1.15 1.11 1.01 0.89
0.67 0.60 0.56 0.57 0.54 0.49 0.40 0.37 0.40 0.45 0.53 0.58 0.64 0.66 0.63 0.66 0.70 0.76 0.82 0.79 0.71 0.64 0.58 0.58 0.57 0.49 0.50 0.55 0.56 0.59 0.79 1.03 0.96 0.80 0.85 1.18 1.03 0.87 1.07 1.27 1.32 1.16 0.93
0.74 0.71 0.66 0.67 0.62 0.59 0.48 0.44 0.48 0.51 0.57 0.61 0.63 0.63 0.63 0.65 0.63 0.66 0.70 0.61 0.48 0.43 0.47 0.54 0.58 0.52 0.52 0.60 0.58 0.60 0.76 0.90 0.72 0.73 0.73 0.84 0.76 0.82 1.04 1.26 1.32 1.22 1.03
0.87 0.79 0.73 0.70 0.62 0.63 0.61 0.56 0.60 0.64 0.66 0.65 0.64 0.62 0.61 0.61 0.63 0.61 0.60 0.51 0.45 0.42 0.43 0.50 0.54 0.51 0.51 0.56 0.63 0.71 0.85 1.03 0.91 0.88 0.70 0.78 0.75 0.93 1.14 1.29 1.36 1.31 1.24
1.25 1.01 0.85 0.85 0.83 0.73 0.71 0.69 0.74 0.75 0.73 0.74 0.68 0.68 0.69 0.70 0.67 0.64 0.59 0.55 0.53 0.52 0.48 0.49 0.54 0.52 0.55 0.57 0.65 0.85 1.10 1.02 0.79 0.86 0.89 0.74 0.80 1.10 1.38 1.39 1.46 1.49 1.47
1.61 1.35 1.11 0.99 0.96 0.89 0.82 0.85 1.01 0.99 0.93 0.89 0.88 0.89 0.85 0.92 0.86 0.81 0.70 0.75 0.74 0.74 0.76 0.76 0.80 0.76 0.74 0.70 0.84 1.11 1.14 0.94 0.96 1.09 1.08 0.85 1.01 1.35 1.60 1.62 1.61 1.62 1.64
1.79 1.48 1.37 1.23 1.10 1.01 0.86 0.95 1.28 1.19 1.11 1.16 1.22 1.10 1.20 1.26 1.22 0.91 0.96 1.16 1.26 1.32 1.29 1.38 1.51 1.25 1.07 1.14 1.63 1.71 1.16 1.07 1.21 1.24 1.20 1.09 1.35 1.73 1.89 1.95 1.91 1.77 1.72
2.06 1.71 1.59 1.45 1.35 1.35 1.43 1.26 1.37 1.45 1.47 1.46 1.44 1.43 1.46 1.27 1.16 1.13 1.29 1.54 1.70 1.75 1.72 2.01 2.09 1.64 1.74 2.09 2.20 1.97 1.46 1.39 1.51 1.42 1.53 1.55 1.60 2.02 2.41 2.41 2.34 2.10 1.92
2.32 2.03 1.82 1.68 1.68 1.73 1.68 1.61 1.50 1.53 1.51 1.55 1.63 1.60 1.71 1.81 1.77 1.80 1.89 1.89 2.03 2.17 2.44 2.52 2.69 2.34 2.33 2.23 2.09 2.02 1.86 1.92 1.81 1.97 2.32 2.09 1.82 2.10 2.73 2.86 2.76 2.52 2.12
2.49 2.19 2.14 1.89 1.80 1.84 1.95 1.99 1.78 1.89 1.82 1.79 1.93 2.01 2.03 2.24 2.27 2.30 2.27 2.26 2.10 2.26 2.49 2.88 2.86 3.09 3.05 2.73 2.33 2.17 2.17 2.22 2.15 2.27 2.53 2.55 2.37 2.41 3.10 3.47 3.35 3.04 2.60
2.45 2.27 2.24 2.10 2.13 2.21 2.18 2.21 2.27 2.29 2.31 2.21 2.16 2.19 2.25 2.46 2.69 2.70 2.61 2.58 2.37 2.37 2.68 2.95 3.03 3.49 3.37 3.23 2.74 2.49 2.34 2.30 2.27 2.40 2.65 2.83 2.77 2.72 3.10 3.55 3.74 3.64 3.26
2.23 2.33 2.48 2.60 2.79 2.84 2.80 2.74 2.68 2.71 2.66 2.67 2.78 2.79 2.82 2.79 2.85 2.77 2.78 2.66 2.68 2.73 2.89 2.96 3.13 3.52 3.32 3.25 3.09 2.81 2.58 2.42 2.32 2.50 2.82 3.12 2.84 2.75 3.07 3.50 3.86 3.78 3.59
2.27 2.37 2.61 2.70 3.06 3.22 3.25 3.31 3.23 3.16 3.05 3.12 3.14 3.17 3.15 3.08 2.94 3.00 2.82 2.67 2.84 2.92 3.08 3.30 3.31 3.40 3.50 3.49 3.32 2.98 2.82 2.72 2.36 2.46 2.62 2.78 2.97 2.57 2.94 3.51 3.73 3.49 3.46
2.62 2.87 3.19 3.25 3.18 3.27 3.47 3.61 3.40 3.31 3.18 3.11 3.04 3.13 3.05 2.92 2.87 3.18 3.02 3.03 3.12 3.31 3.20 2.98 3.44 3.58 3.55 3.52 3.11 3.03 2.68 2.63 2.52 2.41 2.52 2.55 2.77 2.73 2.76 2.85 3.30 3.16 3.35
2.98 3.32 3.48 3.55 3.74 4.01 4.20 4.11 3.86 3.45 3.13 3.02 2.97 2.94 2.92 2.92 2.86 3.16 2.96 2.97 3.18 3.49 3.57 3.52 3.71 3.60 3.45 3.52 3.03 2.88 2.56 2.33 2.31 2.24 2.08 2.30 2.40 2.16 2.30 2.49 2.86 2.44 2.65
3.02 3.24 3.51 3.92 4.27 4.36 4.18 4.10 3.99 3.67 3.36 3.03 2.76 2.72 2.85 2.77 2.83 3.13 2.86 3.18 3.24 3.39 3.57 3.59 3.76 3.66 3.44 3.53 3.44 2.97 2.45 2.14 2.04 1.87 1.89 2.05 1.99 2.03 2.32 2.67 2.90 2.83 2.49
2.86 3.15 3.54 3.96 4.28 4.20 4.29 4.47 4.38 4.15 3.48 3.10 2.92 2.84 2.77 2.72 2.72 2.81 3.22 3.20 3.26 3.43 3.46 3.41 3.49 3.36 3.11 3.37 3.48 3.33 2.71 2.35 1.96 1.62 1.80 1.78 1.91 2.16 2.19 2.20 2.52 2.84 2.70
2.91 3.32 3.59 3.88 4.03 4.06 4.23 4.35 4.05 3.83 3.33 3.16 3.15 2.97 2.84 2.85 2.86 2.96 3.17 3.24 3.22 3.09 3.22 3.37 3.22 3.16 3.05 3.11 3.27 3.32 2.85 2.39 1.98 1.70 1.58 1.61 1.96 2.17 2.11 2.07 2.01 2.19 2.29
2.86 3.42 3.82 3.84 3.91 3.78 3.89 3.97 3.78 3.41 3.12 3.01 3.02 2.79 2.71 2.65 2.65 2.75 2.83 2.98 3.06 2.98 3.04 2.97 2.98 3.05 3.03 2.87 3.00 2.95 2.80 2.60 2.41 1.94 1.56 1.53 1.75 1.88 1.89 1.76 1.82 2.07 2.20
2.59 2.99 3.39 3.72 3.79 3.60 3.52 3.54 3.64 3.43 3.13 2.92 2.82 2.71 2.66 2.64 2.46 2.41 2.54 2.70 2.75 2.67 2.62 2.82 3.07 3.02 2.85 2.72 2.79 2.82 2.94 2.84 2.55 2.24 1.81 1.67 1.60 1.47 1.58 1.63 1.69 1.78 2.00
2.40 2.75 3.02 3.26 3.25 3.17 3.10 3.11 3.19 3.22 3.16 2.89 2.67 2.67 2.65 2.53 2.36 2.28 2.28 2.43 2.51 2.49 2.46 2.54 2.64 2.69 2.66 2.74 2.74 2.68 2.81 2.79 2.66 2.52 2.08 1.80 1.65 1.31 1.34 1.42 1.55 1.64 1.75

GEFSSE_prec_meanprecacc_234.txt.gz
Total_Precipitation_Accumulation
1.09 1.13 1.23 0.86 0.67 0.61 0.66 0.65 0.60 0.58 0.55 0.55 0.61 0.66 0.66 0.65 0.61 0.61 0.68 0.87 0.94 1.06 1.27 1.38 1.38 1.30 1.21 1.15 1.14 1.03 0.90 0.92 1.01 1.04 1.04 1.15 1.23 1.47 1.81 1.67 1.54 1.10 1.02
0.83 0.87 1.02 0.77 0.57 0.56 0.55 0.55 0.53 0.52 0.50 0.48 0.51 0.57 0.66 0.78 0.77 0.74 0.79 0.97 1.05 1.28 1.33 1.34 1.31 1.15 1.14 1.05 0.94 0.86 0.82 0.93 1.05 1.13 1.08 1.02 1.28 1.60 1.81 1.66 1.65 1.03 0.95
0.62 0.64 0.68 0.69 0.57 0.48 0.48 0.51 0.52 0.54 0.49 0.45 0.46 0.52 0.61 0.84 0.96 0.95 0.97 1.16 1.34 1.40 1.29 1.29 1.11 0.94 0.93 0.82 0.78 0.77 0.82 0.95 1.08 1.33 1.39 1.05 1.01 1.62 1.68 1.53 1.20 0.84 0.83
0.50 0.53 0.51 0.55 0.54 0.45 0.44 0.48 0.49 0.49 0.47 0.48 0.53 0.58 0.63 0.77 0.92 1.02 1.12 1.27 1.40 1.32 1.21 1.02 0.87 0.76 0.71 0.64 0.65 0.69 0.80 1.00 1.27 1.60 1.66 1.23 0.77 1.23 1.46 1.29 1.01 0.84 0.80
0.48 0.46 0.56 0.56 0.52 0.46 0.41 0.47 0.48 0.49 0.50 0.51 0.57 0.61 0.66 0.77 0.93 1.07 1.11 1.20 1.20 1.07 0.94 0.85 0.79 0.67 0.60 0.55 0.58 0.67 0.81 1.04 1.25 1.52 1.41 1.35 1.19 1.22 1.25 1.20 1.03 0.98 0.91
0.52 0.48 0.53 0.55 0.51 0.50 0.43 0.42 0.47 0.49 0.55 0.58 0.64 0.70 0.74 0.84 0.94 0.98 1.02 1.09 1.06 0.96 0.87 0.84 0.75 0.63 0.55 0.52 0.57 0.64 0.78 1.04 1.14 0.97 0.99 1.13 1.05 1.14 1.13 1.23 1.17 1.05 0.92
0.71 0.66 0.61 0.62 0.58 0.53 0.43 0.40 0.45 0.49 0.59 0.62 0.68 0.71 0.71 0.75 0.80 0.87 0.94 0.95 0.91 0.84 0.75 0.73 0.69 0.59 0.60 0.64 0.64 0.65 0.84 1.08 0.98 0.83 0.88 1.21 1.07 0.91 1.12 1.34 1.38 1.19 0.96
0.78 0.77 0.73 0.74 0.68 0.62 0.51 0.47 0.52 0.56 0.63 0.67 0.68 0.67 0.68 0.70 0.71 0.75 0.82 0.83 0.72 0.63 0.62 0.69 0.70 0.63 0.62 0.69 0.65 0.67 0.82 0.93 0.74 0.76 0.75 0.87 0.79 0.85 1.09 1.33 1.39 1.27 1.07
0.92 0.86 0.80 0.76 0.67 0.67 0.64 0.60 0.63 0.69 0.73 0.71 0.70 0.67 0.65 0.67 0.69 0.70 0.76 0.72 0.62 0.56 0.54 0.61 0.64 0.61 0.59 0.64 0.70 0.77 0.92 1.07 0.93 0.91 0.72 0.81 0.77 0.95 1.17 1.34 1.42 1.37 1.29
1.31 1.07 0.90 0.90 0.87 0.76 0.74 0.73 0.81 0.85 0.83 0.82 0.75 0.74 0.74 0.77 0.73 0.72 0.70 0.67 0.65 0.61 0.57 0.57 0.62 0.59 0.62 0.65 0.73 0.92 1.15 1.05 0.81 0.89 0.92 0.77 0.83 1.14 1.42 1.43 1.52 1.56 1.52
1.67 1.40 1.15 1.02 0.99 0.93 0.89 0.94 1.16 1.15 1.05 0.98 0.96 0.94 0.90 0.98 0.91 0.87 0.77 0.84 0.83 0.82 0.84 0.84 0.88 0.83 0.81 0.77 0.93 1.18 1.18 0.96 0.97 1.12 1.12 0.88 1.05 1.41 1.69 1.70 1.68 1.67 1.68
1.83 1.51 1.41 1.26 1.11 1.04 0.89 1.01 1.38 1.28 1.17 1.21 1.26 1.15 1.24 1.30 1.26 0.94 1.02 1.23 1.32 1.38 1.37 1.47 1.58 1.31 1.11 1.20 1.69 1.76 1.19 1.10 1.23 1.26 1.23 1.13 1.40 1.82 2.02 2.04 2.00 1.83 1.76
2.09 1.75 1.62 1.48 1.37 1.36 1.45 1.30 1.40 1.49 1.50 1.48 1.46 1.46 1.50 1.29 1.18 1.16 1.34 1.59 1.76 1.80 1.77 2.07 2.13 1.67 1.77 2.14 2.25 2.01 1.50 1.41 1.53 1.44 1.56 1.59 1.66 2.10 2.52 2.48 2.41 2.16 1.97
2.35 2.05 1.83 1.70 1.69 1.74 1.69 1.62 1.51 1.54 1.52 1.55 1.64 1.63 1.76 1.86 1.81 1.83 1.93 1.92 2.07 2.22 2.50 2.57 2.74 2.37 2.36 2.26 2.13 2.07 1.90 1.96 1.83 2.00 2.37 2.12 1.87 2.18 2.84 2.92 2.81 2.57 2.16
2.50 2.21 2.16 1.90 1.80 1.85 1.96 2.01 1.79 1.90 1.83 1.81 1.95 2.05 2.08 2.28 2.31 2.34 2.31 2.30 2.14 2.30 2.54 2.94 2.92 3.14 3.11 2.78 2.37 2.20 2.21 2.27 2.19 2.31 2.57 2.59 2.42 2.49 3.19 3.55 3.40 3.08 2.64
2.46 2.29 2.25 2.12 2.14 2.21 2.19 2.23 2.28 2.30 2.33 2.23 2.20 2.23 2.29 2.50 2.75 2.76 2.66 2.64 2.43 2.41 2.73 3.03 3.09 3.57 3.46 3.32 2.80 2.53 2.38 2.33 2.31 2.44 2.71 2.90 2.81 2.78 3.18 3.64 3.80 3.70 3.32
2.25 2.34 2.49 2.62 2.80 2.86 2.82 2.76 2.70 2.73 2.68 2.70 2.83 2.83 2.88 2.85 2.94 2.85 2.84 2.72 2.75 2.79 2.97 3.05 3.21 3.61 3.41 3.34 3.16 2.87 2.63 2.46 2.36 2.54 2.88 3.19 2.89 2.81 3.14 3.58 3.93 3.87 3.70
2.29 2.40 2.62 2.73 3.10 3.25 3.28 3.35 3.27 3.19 3.10 3.20 3.22 3.25 3.23 3.16 3.02 3.07 2.89 2.73 2.92 2.99 3.18 3.42 3.43 3.53 3.64 3.60 3.40 3.05 2.89 2.79 2.42 2.51 2.67 2.82 3.02 2.62 3.00 3.57 3.80 3.57 3.54
2.65 2.91 3.23 3.30 3.25 3.33 3.52 3.67 3.45 3.37 3.27 3.19 3.12 3.22 3.14 2.99 2.93 3.23 3.09 3.11 3.18 3.38 3.30 3.05 3.54 3.71 3.67 3.61 3.17 3.08 2.74 2.70 2.59 2.45 2.58 2.60 2.81 2.77 2.82 2.90 3.37 3.22 3.41
3.02 3.37 3.54 3.63 3.82 4.09 4.27 4.17 3.92 3.50 3.21 3.11 3.04 3.02 3.00 2.99 2.91 3.21 3.01 3.05 3.24 3.58 3.66 3.61 3.82 3.72 3.58 3.63 3.10 2.93 2.61 2.38 2.36 2.29 2.13 2.35 2.44 2.19 2.35 2.55 2.92 2.49 2.71
3.05 3.28 3.57 3.99 4.34 4.42 4.23 4.15 4.06 3.75 3.44 3.12 2.84 2.78 2.91 2.82 2.88 3.19 2.91 3.26 3.33 3.48 3.67 3.66 3.84 3.75 3.54 3.63 3.55 3.06 2.51 2.19 2.09 1.92 1.93 2.08 2.02 2.07 2.37 2.73 2.96 2.90 2.56
2.89 3.18 3.58 4.02 4.34 4.25 4.33 4.52 4.44 4.21 3.53 3.16 2.99 2.90 2.83 2.77 2.77 2.85 3.29 3.28 3.36 3.53 3.56 3.50 3.58 3.45 3.20 3.48 3.62 3.43 2.79 2.40 2.01 1.65 1.83 1.82 1.94 2.20 2.23 2.25 2.58 2.91 2.77
2.92 3.33 3.60 3.91 4.07 4.10 4.27 4.39 4.10 3.88 3.38 3.22 3.21 3.03 2.91 2.90 2.91 3.02 3.24 3.32 3.32 3.18 3.32 3.48 3.32 3.26 3.15 3.21 3.39 3.46 2.95 2.46 2.04 1.74 1.61 1.63 2.00 2.23 2.16 2.12 2.05 2.22 2.32
2.87 3.44 3.84 3.86 3.92 3.81 3.92 4.01 3.82 3.47 3.20 3.09 3.07 2.85 2.76 2.70 2.72 2.82 2.90 3.07 3.17 3.07 3.15 3.07 3.06 3.15 3.15 2.99 3.10 3.06 2.89 2.67 2.48 2.01 1.61 1.57 1.80 1.94 1.95 1.80 1.85 2.10 2.23
2.60 3.00 3.40 3.74 3.80 3.61 3.54 3.56 3.69 3.51 3.22 3.00 2.87 2.77 2.71 2.69 2.51 2.48 2.62 2.80 2.87 2.79 2.74 2.95 3.20 3.13 2.96 2.85 2.91 2.92 3.04 2.93 2.63 2.31 1.88 1.74 1.66 1.52 1.63 1.69 1.73 1.83 2.05
2.41 2.75 3.03 3.27 3.26 3.18 3.12 3.15 3.24 3.28 3.23 2.97 2.75 2.75 2.73 2.59 2.42 2.33 2.34 2.52 2.62 2.59 2.56 2.66 2.77 2.81 2.78 2.85 2.84 2.78 2.92 2.90 2.77 2.62 2.18 1.89 1.72 1.38 1.41 1.48 1.61 1.70 1.81